KC5DAQ-22 Weather Reports


time (UTC)temp
C
wind
direction
speed
KPH
gust
KPH
rain 1hr
cm
rain 24hr
cm
rain mn
cm
humidity
%
barometer
mb
20260902000325 26 307 3.2 8.0 0.00 0.15 0.15 91 1010.5
20260902000226 26 309 4.8 8.0 0.00 0.15 0.15 91 1010.4
20260902000125 26 309 4.8 8.0 0.00 0.15 0.15 91 1010.4
20260902000024 26 302 6.4 8.0 0.00 0.15 0.15 90 1010.4
20260901235923 26 302 4.8 8.0 0.00 0.15 0.15 90 1010.4
20260901235825 26 269 4.8 8.0 0.00 0.15 0.15 90 1010.4
20260901235723 26 279 4.8 8.0 0.00 0.15 0.15 90 1010.3
20260901235623 26 298 4.8 8.0 0.00 0.15 0.15 90 1010.3
20260901235523 26 298 4.8 8.0 0.00 0.15 0.15 90 1010.3
20260901235423 26 279 4.8 8.0 0.00 0.15 0.15 90 1010.3
20260901235323 26 278 6.4 8.0 0.00 0.15 0.15 90 1010.4
20260901235223 26 276 4.8 8.0 0.00 0.15 0.15 90 1010.4
20260901235124 26 302 4.8 8.0 0.00 0.15 0.15 90 1010.4
20260901235023 26 299 3.2 8.0 0.00 0.15 0.15 90 1010.4
20260901234923 26 274 3.2 8.0 0.00 0.15 0.15 90 1010.4
20260901234824 26 274 3.2 8.0 0.00 0.15 0.15 90 1010.4
20260901234724 26 285 3.2 8.0 0.00 0.15 0.15 90 1010.4
20260901234623 26 289 4.8 9.7 0.00 0.15 0.15 90 1010.4
20260901234523 26 309 6.4 9.7 0.00 0.15 0.15 89 1010.3
20260901234424 26 281 4.8 9.7 0.00 0.15 0.15 89 1010.4
20260901234323 26 285 3.2 9.7 0.00 0.15 0.15 89 1010.3
20260901234223 26 295 4.8 9.7 0.00 0.15 0.15 89 1010.4
20260901234124 26 282 4.8 9.7 0.00 0.15 0.15 89 1010.4
20260901234024 26 290 4.8 9.7 0.00 0.15 0.15 89 1010.4
20260901233922 26 283 4.8 11.3 0.00 0.15 0.15 88 1010.4
20260901233824 26 282 6.4 11.3 0.00 0.15 0.15 88 1010.4
20260901233725 26 296 6.4 16.1 0.00 0.15 0.15 88 1010.4
20260901233624 26 290 4.8 16.1 0.00 0.15 0.15 88 1010.4
20260901233525 26 281 3.2 16.1 0.00 0.15 0.15 88 1010.4
20260901233422 26 286 3.2 16.1 0.00 0.15 0.15 88 1010.5
20260901233324 27 286 4.8 16.1 0.00 0.15 0.15 88 1010.5
20260901233223 27 286 6.4 16.1 0.00 0.15 0.15 88 1010.5
20260901233123 27 299 6.4 16.1 0.00 0.15 0.15 88 1010.5
20260901233024 27 282 6.4 16.1 0.00 0.15 0.15 88 1010.4
20260901232923 27 285 8.0 16.1 0.00 0.15 0.15 87 1010.5
20260901232822 27 289 8.0 16.1 0.00 0.15 0.15 88 1010.5
20260901232723 27 289 8.0 16.1 0.00 0.15 0.15 88 1010.5
20260901232623 27 283 6.4 14.5 0.00 0.15 0.15 89 1010.5
20260901232524 27 295 4.8 14.5 0.00 0.15 0.15 89 1010.5
20260901232423 27 295 4.8 14.5 0.00 0.15 0.15 89 1010.5
20260901232323 27 295 4.8 14.5 0.00 0.15 0.15 89 1010.5
20260901232223 27 292 6.4 14.5 0.00 0.15 0.15 89 1010.5
20260901232123 27 292 8.0 14.5 0.00 0.15 0.15 89 1010.6
20260901232024 27 289 9.7 14.5 0.00 0.15 0.15 89 1010.6
20260901231923 27 296 8.0 14.5 0.00 0.15 0.15 90 1010.6
20260901231822 27 283 4.8 9.7 0.00 0.15 0.15 90 1010.7
20260901231722 27 275 4.8 9.7 0.00 0.15 0.15 90 1010.6
20260901231624 27 290 3.2 9.7 0.00 0.15 0.15 91 1010.7
20260901231522 27 292 3.2 9.7 0.00 0.15 0.15 91 1010.6
20260901231423 27 289 4.8 9.7 0.00 0.15 0.15 90 1010.7
20260901231322 27 288 6.4 9.7 0.00 0.15 0.15 90 1010.7
20260901231222 27 0 6.4 9.7 0.00 0.15 0.15 91 1010.8
20260901231123 27 296 6.4 9.7 0.03 0.15 0.15 91 1010.8
20260901231022 27 276 4.8 8.0 0.03 0.15 0.15 91 1010.8
20260901230924 26 285 3.2 11.3 0.03 0.15 0.15 91 1010.8
20260901230822 27 300 4.8 11.3 0.03 0.15 0.15 91 1010.8
20260901230722 27 292 4.8 11.3 0.03 0.15 0.15 91 1010.8
20260901230622 27 293 4.8 11.3 0.03 0.15 0.15 91 1010.8
20260901230522 27 296 4.8 11.3 0.03 0.15 0.15 91 1010.9
20260901230422 26 299 3.2 11.3 0.03 0.15 0.15 91 1010.9
20260901230323 26 303 4.8 11.3 0.03 0.15 0.15 91 1010.9
20260901230223 26 295 6.4 11.3 0.03 0.15 0.15 91 1010.9
20260901230122 26 285 6.4 11.3 0.03 0.15 0.15 91 1010.9
20260901230022 26 282 4.8 11.3 0.03 0.13 0.15 91 1011.0
20260901225923 26 285 6.4 11.3 0.03 0.13 0.15 91 1010.9
20260901225822 26 279 6.4 11.3 0.03 0.13 0.15 91 1010.9
20260901225722 26 283 6.4 11.3 0.03 0.13 0.15 91 1010.9
20260901225623 26 292 6.4 11.3 0.03 0.13 0.15 91 1010.9
20260901225523 26 281 6.4 11.3 0.03 0.13 0.15 91 1011.0
20260901225422 26 281 4.8 11.3 0.03 0.13 0.15 91 1011.0
20260901225321 26 289 3.2 11.3 0.03 0.13 0.15 91 1010.9
20260901225222 26 292 4.8 11.3 0.03 0.13 0.15 91 1011.0
20260901225122 26 288 4.8 16.1 0.03 0.13 0.15 91 1011.0
20260901225022 26 310 6.4 16.1 0.03 0.13 0.15 91 1011.1
20260901224921 26 299 6.4 16.1 0.03 0.13 0.15 91 1011.1
20260901224823 26 283 6.4 16.1 0.03 0.13 0.15 91 1011.1
20260901224723 26 283 6.4 16.1 0.03 0.13 0.15 91 1011.2
20260901224622 26 283 6.4 16.1 0.03 0.13 0.15 91 1011.2
20260901224523 26 283 6.4 16.1 0.03 0.13 0.15 91 1011.2
20260901224422 26 306 6.4 16.1 0.03 0.13 0.15 91 1011.2
20260901224322 26 0 6.4 16.1 0.03 0.13 0.15 91 1011.3
20260901224221 26 302 8.0 16.1 0.03 0.13 0.15 91 1011.3
20260901224123 26 298 9.7 16.1 0.03 0.13 0.15 91 1011.3
20260901224023 26 295 8.0 16.1 0.03 0.13 0.15 91 1011.3
20260901223922 26 288 8.0 14.5 0.03 0.13 0.15 91 1011.3
20260901223821 26 285 8.0 16.1 0.03 0.13 0.15 91 1011.3
20260901223722 26 8 9.7 16.1 0.03 0.13 0.15 90 1011.4
20260901223623 26 303 9.7 17.7 0.03 0.13 0.15 90 1011.3
20260901223521 26 296 8.0 17.7 0.03 0.13 0.15 91 1011.4
20260901223423 26 293 9.7 17.7 0.03 0.13 0.15 90 1011.3
20260901223321 26 16 9.7 17.7 0.03 0.13 0.15 90 1011.3
20260901223223 26 4 6.4 17.7 0.03 0.13 0.15 91 1011.3
20260901223122 26 10 6.4 17.7 0.03 0.13 0.15 91 1011.3
20260901223021 26 0 9.7 17.7 0.03 0.13 0.15 90 1011.3
20260901222921 26 4 9.7 17.7 0.03 0.13 0.15 91 1011.3
20260901222822 26 0 9.7 17.7 0.03 0.13 0.15 90 1011.3
20260901222721 26 23 11.3 17.7 0.03 0.13 0.15 90 1011.3
20260901222622 26 3 8.0 16.1 0.03 0.13 0.15 91 1011.3
20260901222521 26 0 8.0 16.1 0.03 0.13 0.15 91 1011.3
20260901222421 26 299 6.4 16.1 0.03 0.13 0.15 91 1011.2
20260901222321 26 13 4.8 11.3 0.03 0.13 0.15 91 1011.3
20260901222221 26 8 3.2 11.3 0.03 0.13 0.15 91 1011.3
20260901222121 26 10 3.2 11.3 0.03 0.13 0.15 91 1011.3
20260901222022 26 10 6.4 11.3 0.03 0.13 0.15 90 1011.4
20260901221922 26 31 8.0 11.3 0.03 0.13 0.15 90 1011.3
20260901221803 26 18 8.0 11.3 0.03 0.13 0.15 90 1011.3
20260901221704 26 20 8.0 11.3 0.03 0.13 0.15 90 1011.3
20260901221605 26 11 9.7 11.3 0.03 0.13 0.15 90 1011.3
20260901221503 26 25 9.7 11.3 0.03 0.13 0.15 90 1011.3
20260901221401 26 18 8.0 11.3 0.03 0.13 0.15 90 1011.3
20260901221302 26 20 6.4 8.0 0.03 0.13 0.15 90 1011.3
20260901221203 27 39 4.8 8.0 0.03 0.13 0.13 90 1011.3
20260901221102 27 16 4.8 8.0 0.00 0.13 0.13 90 1011.3
20260901221004 27 16 6.4 8.0 0.00 0.13 0.13 90 1011.3
20260901220904 27 21 4.8 11.3 0.00 0.13 0.13 90 1011.4
20260901220804 27 7 4.8 11.3 0.00 0.13 0.13 90 1011.4
20260901220702 27 13 4.8 11.3 0.00 0.13 0.13 90 1011.4
20260901220603 27 20 4.8 14.5 0.00 0.13 0.13 90 1011.4
20260901220503 27 20 4.8 14.5 0.00 0.13 0.13 90 1011.4
20260901220404 27 23 4.8 14.5 0.00 0.13 0.13 89 1011.4
20260901220302 27 23 4.8 14.5 0.00 0.13 0.13 89 1011.4
20260901220204 27 39 8.0 16.1 0.00 0.13 0.13 89 1011.4
20260901220035 27 39 8.0 16.1 0.00 0.13 0.13 89 1011.4
20260901215932 27 39 8.0 16.1 0.00 0.13 0.00 89 1011.4
20260901215832 27 23 8.0 16.1 0.00 0.13 0.00 89 1011.4
20260901215732 27 42 9.7 16.1 0.00 0.13 0.00 89 1011.3
20260901215634 27 66 9.7 16.1 0.00 0.13 0.00 88 1011.4
20260901215531 27 63 9.7 16.1 0.00 0.13 0.00 89 1011.4
20260901215431 27 44 9.7 16.1 0.00 0.13 0.00 88 1011.4
20260901215332 27 41 11.3 17.7 0.00 0.13 0.00 88 1011.4
20260901215233 27 42 9.7 17.7 0.00 0.13 0.00 89 1011.4
20260901215132 27 47 6.4 17.7 0.00 0.13 0.00 89 1011.4
20260901215033 27 39 6.4 17.7 0.05 0.13 0.00 89 1011.3
20260901214931 27 38 8.0 17.7 0.05 0.13 0.00 88 1011.4
20260901214832 27 58 8.0 17.7 0.05 0.13 0.00 88 1011.5
20260901214732 27 45 8.0 17.7 0.05 0.13 0.00 88 1011.4
20260901214631 27 32 11.3 17.7 0.05 0.13 0.00 88 1011.4
20260901214532 27 24 12.9 17.7 0.05 0.13 0.00 88 1011.4
20260901214432 27 27 14.5 17.7 0.05 0.13 0.00 88 1011.5
20260901214332 28 55 12.9 17.7 0.05 0.13 0.00 88 1011.5
20260901214231 28 24 9.7 17.7 0.05 0.13 0.00 88 1011.5
20260901214132 28 24 9.7 17.7 0.05 0.13 0.00 88 1011.4
20260901214032 28 24 9.7 17.7 0.05 0.13 0.00 88 1011.5
20260901213933 28 24 9.7 17.7 0.05 0.13 0.00 88 1011.4
20260901213833 28 51 9.7 17.7 0.05 0.13 0.00 88 1011.5
20260901213730 28 66 9.7 11.3 0.08 0.13 0.00 88 1011.6
20260901213632 28 47 6.4 11.3 0.08 0.13 0.00 88 1011.6
20260901213531 28 24 4.8 6.4 0.08 0.13 0.00 88 1011.5
20260901213431 28 14 4.8 6.4 0.08 0.13 0.00 88 1011.4
20260901213331 28 14 3.2 6.4 0.08 0.13 0.00 89 1011.4
20260901213232 28 14 1.6 4.8 0.08 0.13 0.00 88 1011.4
20260901213132 28 14 0.0 0.0 0.10 0.13 0.00 88 1011.3
20260901213030 28 14 0.0 0.0 0.10 0.13 0.00 88 1011.3
20260901212932 28 14 0.0 0.0 0.10 0.13 0.00 88 1011.3
20260901212832 28 14 0.0 0.0 0.10 0.13 0.00 88 1011.3
20260901212732 28 14 0.0 1.6 0.10 0.13 0.00 88 1011.3
20260901212633 28 14 0.0 1.6 0.10 0.13 0.00 87 1011.3
20260901212532 28 14 0.0 1.6 0.13 0.13 0.00 87 1011.3
20260901212431 28 14 0.0 1.6 0.13 0.13 0.00 87 1011.2
20260901212332 28 14 0.0 1.6 0.13 0.13 0.00 86 1011.4
20260901212231 28 14 0.0 1.6 0.13 0.13 0.00 86 1011.4
20260901212132 28 14 0.0 1.6 0.13 0.13 0.00 86 1011.4
20260901212031 28 14 0.0 1.6 0.13 0.13 0.00 87 1011.4
20260901211933 28 14 0.0 1.6 0.13 0.13 0.00 87 1011.4
20260901211833 28 14 0.0 1.6 0.13 0.13 0.00 86 1011.4
20260901211731 28 14 0.0 1.6 0.13 0.13 0.00 86 1011.3
20260901211631 28 14 0.0 1.6 0.13 0.13 0.00 86 1011.3
20260901211532 28 14 0.0 3.2 0.13 0.13 0.00 85 1011.3
20260901211431 27 14 3.2 4.8 0.13 0.13 0.00 87 1011.3
20260901211333 27 14 3.2 4.8 0.13 0.13 0.00 87 1011.3
20260901211232 27 14 3.2 4.8 0.13 0.13 0.00 87 1011.3
20260901211133 27 14 3.2 4.8 0.13 0.13 0.00 87 1011.3
20260901211032 27 14 3.2 4.8 0.13 0.13 0.00 87 1011.3
20260901210932 27 14 3.2 4.8 0.13 0.13 0.00 87 1011.3
20260901210831 27 14 3.2 4.8 0.13 0.13 0.00 87 1011.3
20260901210732 27 14 3.2 4.8 0.13 0.13 0.00 87 1011.3
20260901210622 27 14 3.2 4.8 0.13 0.13 0.00 87 1011.3
20260901210518 27 14 3.2 4.8 0.13 0.13 0.00 87 1011.3
20260901210419 27 14 3.2 6.4 0.13 0.13 0.00 86 1011.4
20260901210319 27 11 4.8 8.0 0.13 0.13 0.13 86 1011.4
20260901210218 27 11 4.8 8.0 0.13 0.13 0.13 86 1011.3
20260901210116 27 11 4.8 8.0 0.13 0.13 0.13 86 1011.3
20260901210018 27 11 4.8 8.0 0.13 0.00 0.13 86 1011.3
20260901205916 27 11 4.8 8.0 0.13 0.00 0.13 86 1011.3
20260901205817 27 11 4.8 8.0 0.13 0.00 0.13 86 1011.3
20260901205717 27 11 4.8 8.0 0.13 0.00 0.13 86 1011.2
20260901205616 27 11 4.8 8.0 0.13 0.00 0.13 86 1011.2
20260901205516 28 11 4.8 8.0 0.13 0.00 0.13 86 1011.3
20260901205415 28 11 4.8 8.0 0.13 0.00 0.13 86 1011.3
20260901205316 28 8 3.2 4.8 0.13 0.00 0.13 86 1011.3
20260901205215 28 8 3.2 4.8 0.13 0.00 0.13 86 1011.3
20260901205115 28 8 1.6 6.4 0.13 0.00 0.13 86 1011.3
20260901205016 28 10 4.8 6.4 0.08 0.00 0.08 85 1011.3
20260901204916 28 10 4.8 6.4 0.08 0.00 0.08 85 1011.3
20260901204814 28 10 4.8 6.4 0.08 0.00 0.08 85 1011.3
20260901204714 28 10 4.8 6.4 0.08 0.00 0.08 85 1011.3
20260901204615 28 10 4.8 6.4 0.08 0.00 0.08 85 1011.3
20260901204514 28 10 4.8 6.4 0.08 0.00 0.08 85 1011.3
20260901204415 28 10 4.8 6.4 0.08 0.00 0.08 85 1011.3
20260901204315 28 10 4.8 6.4 0.08 0.00 0.08 85 1011.3
20260901204213 28 10 4.8 6.4 0.08 0.00 0.08 85 1011.3
20260901204114 28 10 4.8 6.4 0.08 0.00 0.08 84 1011.2
20260901204013 28 10 4.8 6.4 0.08 0.00 0.08 84 1011.2
20260901203913 28 10 4.8 6.4 0.08 0.00 0.08 84 1011.3
20260901203815 28 10 6.4 6.4 0.08 0.00 0.08 82 1011.2
20260901203714 29 0 3.2 4.8 0.05 0.00 0.05 82 1011.2
20260901203614 29 0 3.2 6.4 0.05 0.00 0.05 82 1011.2
20260901203505 29 0 3.2 6.4 0.05 0.00 0.05 82 1011.2
20260901203403 29 0 3.2 6.4 0.05 0.00 0.05 82 1011.2
20260901203301 29 0 1.6 6.4 0.05 0.00 0.03 83 1011.2
20260901203203 29 0 3.2 6.4 0.03 0.00 0.03 81 1011.2
20260901203102 29 0 3.2 6.4 0.03 0.00 0.03 80 1011.2
20260901203004 30 0 3.2 6.4 0.03 0.00 0.03 79 1011.2
20260901202902 30 0 3.2 6.4 0.03 0.00 0.03 79 1011.2
20260901202801 30 0 3.2 6.4 0.03 0.00 0.03 77 1011.2
20260901202701 30 0 4.8 6.4 0.03 0.00 0.03 76 1011.2
20260901202603 30 0 3.2 8.0 0.00 0.00 0.00 76 1011.2
20260901202503 30 0 3.2 8.0 0.00 0.00 0.00 75 1011.3
20260901202402 30 0 4.8 8.0 0.00 0.00 0.00 75 1011.3
20260901202305 30 351 4.8 8.0 0.00 0.00 0.00 74 1011.3
20260901202205 31 333 4.8 11.3 0.00 0.00 0.00 74 1011.3
20260901202102 31 331 3.2 11.3 0.00 0.00 0.00 74 1011.3
20260901202004 31 327 4.8 11.3 0.00 0.00 0.00 73 1011.3
20260901201904 31 327 4.8 11.3 0.00 0.00 0.00 72 1011.3
20260901201802 31 327 4.8 11.3 0.00 0.00 0.00 72 1011.3
20260901201702 31 0 4.8 11.3 0.00 0.00 0.00 71 1011.3
20260901201603 31 324 6.4 11.3 0.00 0.00 0.00 71 1011.3
20260901201502 31 331 6.4 11.3 0.00 0.00 0.00 71 1011.3
20260901201400 31 331 6.4 11.3 0.00 0.00 0.00 71 1011.4
20260901201259 31 307 6.4 11.3 0.00 0.00 0.00 71 1011.4
20260901201159 31 317 4.8 9.7 0.00 0.00 0.00 71 1011.4
20260901201056 31 354 4.8 11.3 0.00 0.00 0.00 71 1011.4
20260901200954 31 313 4.8 11.3 0.00 0.00 0.00 72 1011.4
20260901200853 31 336 6.4 11.3 0.00 0.00 0.00 72 1011.5
20260901200744 31 336 6.4 11.3 0.00 0.00 0.00 71 1011.5
20260901200640 31 321 6.4 16.1 0.00 0.00 0.00 71 1011.5
20260901200535 31 331 6.4 16.1 0.00 0.00 0.00 71 1011.6
20260901200434 31 331 4.8 16.1 0.00 0.00 0.00 72 1011.5
20260901200331 31 350 6.4 16.1 0.00 0.00 0.00 71 1011.6
20260901200230 31 345 8.0 16.1 0.00 0.00 0.00 71 1011.6
20260901200132 31 312 8.0 16.1 0.00 0.00 0.00 71 1011.7
20260901200033 31 313 6.4 16.1 0.00 0.00 0.00 71 1011.7
20260901195932 31 309 6.4 16.1 0.00 0.00 0.00 71 1011.8
20260901195831 31 309 8.0 16.1 0.00 0.00 0.00 71 1011.8
20260901195733 31 300 9.7 16.1 0.00 0.00 0.00 71 1011.8
20260901195631 31 300 8.0 11.3 0.00 0.00 0.00 70 1011.9
20260901195531 31 313 8.0 9.7 0.00 0.00 0.00 70 1011.9
20260901195432 31 302 4.8 9.7 0.00 0.00 0.00 71 1012.0
20260901195333 31 337 4.8 9.7 0.00 0.00 0.00 71 1012.0
20260901195231 31 338 4.8 9.7 0.00 0.00 0.00 71 1012.0
20260901195132 31 345 3.2 14.5 0.00 0.00 0.00 71 1012.0
20260901195032 31 345 4.8 16.1 0.00 0.00 0.00 72 1012.1
20260901194934 31 345 4.8 16.1 0.00 0.00 0.00 71 1012.1
20260901194830 31 316 6.4 16.1 0.00 0.00 0.00 71 1012.1
20260901194731 31 307 6.4 16.1 0.00 0.00 0.00 72 1012.1
20260901194630 31 351 6.4 16.1 0.00 0.00 0.00 72 1012.2
20260901194529 31 317 6.4 16.1 0.00 0.00 0.00 71 1012.2
20260901194429 31 298 6.4 16.1 0.00 0.00 0.00 71 1012.2
20260901194327 31 309 8.0 16.1 0.00 0.00 0.00 71 1012.2
20260901194224 31 303 9.7 16.1 0.00 0.00 0.00 71 1012.2
20260901194123 31 300 9.7 16.1 0.00 0.00 0.00 71 1012.2
20260901194021 31 298 9.7 14.5 0.00 0.00 0.00 71 1012.2
20260901193921 31 321 8.0 14.5 0.00 0.00 0.00 71 1012.3
20260901193820 31 326 6.4 14.5 0.00 0.00 0.00 71 1012.3
20260901193717 31 337 6.4 14.5 0.00 0.00 0.00 71 1012.3
20260901193617 31 319 8.0 14.5 0.00 0.00 0.00 72 1012.3
20260901193515 31 307 9.7 14.5 0.00 0.00 0.00 71 1012.3
20260901193414 31 300 9.7 14.5 0.00 0.00 0.00 71 1012.4
20260901193309 31 231 6.4 9.7 0.00 0.00 0.00 70 1012.4
20260901193206 31 312 4.8 9.7 0.00 0.00 0.00 70 1012.5
20260901193105 31 286 4.8 9.7 0.00 0.00 0.00 71 1012.5
20260901193003 31 323 3.2 9.7 0.00 0.00 0.00 70 1012.5
20260901192903 31 323 1.6 9.7 0.00 0.00 0.00 70 1012.4
20260901192801 31 323 1.6 9.7 0.00 0.00 0.00 70 1012.5
20260901192702 31 323 1.6 9.7 0.00 0.00 0.00 70 1012.5
20260901192601 31 323 3.2 9.7 0.00 0.00 0.00 71 1012.6
20260901192503 31 323 6.4 9.7 0.00 0.00 0.00 71 1012.5
20260901192404 31 323 6.4 9.7 0.00 0.00 0.00 71 1012.6
20260901192306 31 314 6.4 9.7 0.00 0.00 0.00 71 1012.5
20260901192202 31 296 6.4 8.0 0.00 0.00 0.00 72 1012.6
20260901192103 31 295 4.8 8.0 0.00 0.00 0.00 71 1012.6
20260901192004 31 310 3.2 6.4 0.00 0.00 0.00 72 1012.5
20260901191902 31 320 3.2 6.4 0.00 0.00 0.00 72 1012.5
20260901191802 31 320 3.2 6.4 0.00 0.00 0.00 72 1012.6
20260901191704 31 320 4.8 6.4 0.00 0.00 0.00 71 1012.6
20260901191603 31 320 3.2 6.4 0.00 0.00 0.00 72 1012.5
20260901191501 31 305 1.6 6.4 0.00 0.00 0.00 72 1012.6
20260901191403 31 303 1.6 6.4 0.00 0.00 0.00 72 1012.6
20260901191303 31 303 1.6 6.4 0.00 0.00 0.00 71 1012.6
20260901191203 31 303 3.2 6.4 0.00 0.00 0.00 71 1012.5
20260901191102 31 303 3.2 6.4 0.00 0.00 0.00 72 1012.6
20260901191003 31 340 3.2 6.4 0.00 0.00 0.00 71 1012.6
20260901190902 31 340 4.8 6.4 0.00 0.00 0.00 72 1012.5
20260901190802 31 340 3.2 6.4 0.00 0.00 0.00 72 1012.5
20260901190704 31 303 3.2 6.4 0.00 0.00 0.00 73 1012.4
20260901190602 31 303 3.2 6.4 0.00 0.00 0.00 73 1012.5
20260901190502 31 303 3.2 6.4 0.00 0.00 0.00 73 1012.5
20260901190403 31 303 3.2 6.4 0.00 0.00 0.00 74 1012.5
20260901190303 30 303 3.2 6.4 0.00 0.00 0.00 73 1012.5
20260901190202 30 303 3.2 6.4 0.00 0.00 0.00 74 1012.4
20260901190005 30 302 3.2 6.4 0.00 0.00 0.00 75 1012.4
20260901185904 30 302 3.2 6.4 0.00 0.00 0.00 75 1012.3
20260901185803 30 302 3.2 6.4 0.00 0.00 0.00 75 1012.3
20260901185704 30 302 3.2 6.4 0.00 0.00 0.00 76 1012.3
20260901185605 30 302 3.2 6.4 0.00 0.00 0.00 77 1012.3
20260901185502 30 302 3.2 6.4 0.00 0.00 0.00 78 1012.4
20260901185402 30 302 3.2 6.4 0.00 0.00 0.00 77 1012.4
20260901185305 30 302 3.2 6.4 0.00 0.00 0.00 76 1012.3
20260901185202 30 302 4.8 6.4 0.00 0.00 0.00 77 1012.3
20260901185102 30 302 3.2 6.4 0.00 0.00 0.00 77 1012.3
20260901185004 30 299 3.2 6.4 0.00 0.00 0.00 76 1012.3
20260901184858 30 298 4.8 6.4 0.00 0.00 0.00 77 1012.3
20260901184757 30 299 4.8 6.4 0.00 0.00 0.00 77 1012.3
20260901184654 30 317 4.8 6.4 0.00 0.00 0.00 78 1012.3
20260901184551 30 319 4.8 6.4 0.00 0.00 0.00 77 1012.3
20260901184450 30 326 4.8 6.4 0.00 0.00 0.00 77 1012.4
20260901184349 30 326 4.8 6.4 0.00 0.00 0.00 77 1012.3
20260901184246 30 326 3.2 6.4 0.00 0.00 0.00 78 1012.4
20260901184147 30 326 3.2 6.4 0.00 0.00 0.00 78 1012.3
20260901184045 30 307 3.2 6.4 0.00 0.00 0.00 77 1012.3
20260901183943 30 307 3.2 6.4 0.00 0.00 0.00 77 1012.3
20260901183842 30 307 3.2 8.0 0.00 0.00 0.00 77 1012.4
20260901183738 30 307 3.2 8.0 0.00 0.00 0.00 78 1012.3
20260901183635 30 307 3.2 8.0 0.00 0.00 0.00 78 1012.3
20260901183533 30 306 4.8 8.0 0.00 0.00 0.00 77 1012.4
20260901183432 30 307 3.2 8.0 0.00 0.00 0.00 78 1012.3
20260901183330 30 326 3.2 8.0 0.00 0.00 0.00 77 1012.4
20260901183232 30 326 3.2 8.0 0.00 0.00 0.00 77 1012.4
20260901183132 30 326 4.8 8.0 0.00 0.00 0.00 77 1012.4
20260901183031 30 326 4.8 8.0 0.00 0.00 0.00 78 1012.4
20260901182931 30 326 3.2 8.0 0.00 0.00 0.00 78 1012.4
20260901182831 30 343 3.2 6.4 0.00 0.00 0.00 77 1012.5
20260901182731 30 343 3.2 6.4 0.00 0.00 0.00 77 1012.4
20260901182630 30 343 3.2 6.4 0.00 0.00 0.00 77 1012.4
20260901182532 30 343 3.2 6.4 0.00 0.00 0.00 77 1012.4
20260901182431 30 343 4.8 6.4 0.00 0.00 0.00 78 1012.5
20260901182332 30 343 3.2 6.4 0.00 0.00 0.00 79 1012.5
20260901182232 30 343 3.2 6.4 0.00 0.00 0.00 79 1012.5
20260901182132 30 343 4.8 6.4 0.00 0.00 0.00 79 1012.6
20260901182031 30 344 4.8 6.4 0.00 0.00 0.00 78 1012.6
20260901181932 30 354 3.2 6.4 0.00 0.00 0.00 77 1012.6
20260901181832 30 0 3.2 6.4 0.00 0.00 0.00 77 1012.7
20260901181731 30 0 3.2 6.4 0.00 0.00 0.00 78 1012.6
20260901181630 30 0 3.2 6.4 0.00 0.00 0.00 79 1012.7
20260901181530 30 0 4.8 6.4 0.00 0.00 0.00 78 1012.7
20260901181430 30 0 4.8 6.4 0.00 0.00 0.00 79 1012.7
20260901181330 30 0 4.8 6.4 0.00 0.00 0.00 80 1012.7
20260901181228 30 0 4.8 6.4 0.00 0.00 0.00 80 1012.8
20260901181126 30 350 4.8 6.4 0.00 0.00 0.00 81 1012.8
20260901181026 30 0 3.2 6.4 0.00 0.00 0.00 80 1012.7
20260901180923 30 0 3.2 6.4 0.00 0.00 0.00 81 1012.8
20260901180823 30 0 3.2 6.4 0.00 0.00 0.00 80 1012.8
20260901180721 30 8 1.6 4.8 0.00 0.00 0.00 81 1012.9
20260901180618 30 8 1.6 4.8 0.00 0.00 0.00 82 1012.9
20260901180516 30 8 1.6 4.8 0.00 0.00 0.00 81 1012.8
20260901180417 30 8 1.6 4.8 0.00 0.00 0.00 81 1012.9
20260901180316 30 10 1.6 4.8 0.00 0.00 0.00 80 1012.9
20260901180213 30 10 3.2 4.8 0.00 0.00 0.00 80 1012.9
20260901180111 30 10 3.2 4.8 0.00 0.00 0.00 77 1012.8
20260901180012 30 10 3.2 4.8 0.00 0.00 0.00 81 1013.0
20260901175909 30 30 1.6 4.8 0.00 0.00 0.00 79 1012.9
20260901175809 30 30 0.0 4.8 0.00 0.00 0.00 80 1012.9
20260901175712 30 30 0.0 4.8 0.00 0.00 0.00 81 1013.0
20260901175610 30 30 0.0 4.8 0.00 0.00 0.00 80 1013.1
20260901175509 30 30 0.0 4.8 0.00 0.00 0.00 78 1013.0
20260901175409 30 30 1.6 4.8 0.00 0.00 0.00 77 1013.1
20260901175310 30 30 1.6 4.8 0.00 0.00 0.00 78 1013.0
20260901175211 30 30 1.6 4.8 0.00 0.00 0.00 78 1013.1
20260901175109 30 30 1.6 4.8 0.00 0.00 0.00 78 1013.1
20260901175010 30 30 1.6 4.8 0.00 0.00 0.00 78 1013.1
20260901174910 30 31 1.6 6.4 0.00 0.00 0.00 78 1013.1
20260901174809 30 31 3.2 6.4 0.00 0.00 0.00 78 1013.1
20260901174709 30 31 1.6 6.4 0.00 0.00 0.00 78 1013.1
20260901174610 30 32 1.6 6.4 0.00 0.00 0.00 77 1013.2
20260901174509 30 32 3.2 8.0 0.00 0.00 0.00 76 1013.3
20260901174409 30 31 3.2 8.0 0.00 0.00 0.00 77 1013.3
20260901174311 30 31 1.6 8.0 0.00 0.00 0.00 79 1013.4
20260901174210 30 31 1.6 8.0 0.00 0.00 0.00 78 1013.3
20260901174110 30 31 3.2 8.0 0.00 0.00 0.00 77 1013.3
20260901174015 30 31 3.2 8.0 0.00 0.00 0.00 77 1013.4
20260901173911 30 31 4.8 8.0 0.00 0.00 0.00 77 1013.5
20260901173809 30 31 3.2 8.0 0.00 0.00 0.00 77 1013.4
20260901173709 30 31 4.8 8.0 0.00 0.00 0.00 77 1013.5
20260901173610 30 62 4.8 8.0 0.00 0.00 0.00 77 1013.5
20260901173509 30 51 1.6 8.0 0.00 0.00 0.00 78 1013.5
20260901173409 30 49 3.2 8.0 0.00 0.00 0.00 78 1013.6
20260901173309 30 51 4.8 8.0 0.00 0.00 0.00 77 1013.6
20260901173210 30 51 6.4 8.0 0.00 0.00 0.00 76 1013.7
20260901173109 30 49 6.4 8.0 0.00 0.00 0.00 76 1013.6
20260901173009 30 49 6.4 8.0 0.00 0.00 0.00 76 1013.7
20260901172911 30 48 6.4 8.0 0.00 0.00 0.00 76 1013.6
20260901172809 30 48 6.4 8.0 0.00 0.00 0.00 75 1013.6
20260901172708 30 48 4.8 8.0 0.00 0.00 0.00 75 1013.7
20260901172610 30 54 4.8 11.3 0.00 0.00 0.00 75 1013.7
20260901172508 30 73 4.8 11.3 0.00 0.00 0.00 74 1013.7
20260901172410 30 73 6.4 11.3 0.00 0.00 0.00 74 1013.8
20260901172308 30 69 4.8 11.3 0.00 0.00 0.00 75 1013.7
20260901172209 30 25 3.2 11.3 0.00 0.00 0.00 74 1013.7
20260901172108 30 25 3.2 11.3 0.00 0.00 0.00 73 1013.7
20260901172009 30 25 4.8 11.3 0.00 0.00 0.00 72 1013.8
20260901171909 30 25 6.4 11.3 0.00 0.00 0.00 71 1013.8
20260901171808 30 25 8.0 11.3 0.00 0.00 0.00 71 1013.8
20260901171709 30 25 9.7 11.3 0.00 0.00 0.00 71 1013.8
20260901171608 30 35 8.0 11.3 0.00 0.00 0.00 71 1013.9
20260901171509 30 31 6.4 11.3 0.00 0.00 0.00 71 1013.9
20260901171408 30 45 6.4 9.7 0.00 0.00 0.00 71 1013.9
20260901171308 30 52 6.4 9.7 0.00 0.00 0.00 71 1013.9
20260901171208 30 55 6.4 9.7 0.00 0.00 0.00 71 1013.9
20260901171109 30 44 6.4 9.7 0.00 0.00 0.00 71 1013.9
20260901171008 30 44 6.4 9.7 0.00 0.00 0.00 72 1013.9
20260901170908 30 24 1.6 6.4 0.00 0.00 0.00 73 1013.9
20260901170809 30 24 1.6 6.4 0.00 0.00 0.00 73 1013.9
20260901170709 30 24 3.2 6.4 0.00 0.00 0.00 73 1013.9
20260901170608 30 24 3.2 6.4 0.00 0.00 0.00 73 1013.9
20260901170511 30 24 3.2 6.4 0.00 0.00 0.00 73 1014.0
20260901170409 30 24 3.2 6.4 0.00 0.00 0.00 73 1013.9
20260901170308 30 24 3.2 6.4 0.00 0.00 0.00 74 1014.0
20260901170208 30 24 3.2 6.4 0.00 0.00 0.00 74 1014.0
20260901170109 30 24 4.8 6.4 0.00 0.00 0.00 74 1014.0
20260901170009 30 24 4.8 6.4 0.00 0.00 0.00 73 1013.9
20260901165907 30 24 4.8 6.4 0.00 0.00 0.00 74 1013.8
20260901165805 30 23 3.2 6.4 0.00 0.00 0.00 74 1014.0
20260901165703 30 24 4.8 6.4 0.00 0.00 0.00 74 1013.9
20260901165603 30 354 4.8 6.4 0.00 0.00 0.00 73 1013.8
20260901165504 30 354 4.8 6.4 0.00 0.00 0.00 72 1013.9
20260901165403 30 0 3.2 6.4 0.00 0.00 0.00 73 1013.9
20260901165306 30 0 3.2 4.8 0.00 0.00 0.00 73 1013.9
20260901165202 30 0 3.2 4.8 0.00 0.00 0.00 72 1013.9
20260901165103 30 0 3.2 4.8 0.00 0.00 0.00 72 1013.9
20260901165003 30 0 3.2 4.8 0.00 0.00 0.00 72 1013.9
20260901164903 30 0 3.2 4.8 0.00 0.00 0.00 72 1013.9
20260901164803 30 0 3.2 4.8 0.00 0.00 0.00 72 1013.9
20260901164703 30 0 3.2 4.8 0.00 0.00 0.00 73 1014.0
20260901164602 30 0 3.2 4.8 0.00 0.00 0.00 74 1014.0
20260901164504 30 0 3.2 6.4 0.00 0.00 0.00 75 1014.0
20260901164403 30 0 3.2 6.4 0.00 0.00 0.00 74 1014.0
20260901164302 30 0 1.6 8.0 0.00 0.00 0.00 74 1014.1
20260901164203 30 0 1.6 8.0 0.00 0.00 0.00 74 1014.1
20260901164103 30 0 3.2 8.0 0.00 0.00 0.00 74 1014.1
20260901164004 30 0 3.2 8.0 0.00 0.00 0.00 73 1014.1
20260901163902 30 0 3.2 8.0 0.00 0.00 0.00 74 1014.1
20260901163802 30 25 1.6 8.0 0.00 0.00 0.00 73 1014.0
20260901163703 30 30 3.2 8.0 0.00 0.00 0.00 73 1014.0
20260901163602 30 30 3.2 8.0 0.00 0.00 0.00 73 1014.0
20260901163503 30 30 6.4 8.0 0.00 0.00 0.00 72 1014.1
20260901163403 30 32 4.8 8.0 0.00 0.00 0.00 73 1014.1
20260901163302 30 37 3.2 6.4 0.00 0.00 0.00 73 1014.1
20260901163202 30 336 1.6 8.0 0.00 0.00 0.00 74 1014.1
20260901163102 30 336 1.6 8.0 0.00 0.00 0.00 74 1014.1
20260901163004 30 336 1.6 8.0 0.00 0.00 0.00 74 1014.1
20260901162903 30 336 1.6 8.0 0.00 0.00 0.00 74 1014.2
20260901162803 30 336 3.2 8.0 0.00 0.00 0.00 74 1014.1
20260901162702 30 336 3.2 8.0 0.00 0.00 0.00 74 1014.1
20260901162602 30 336 3.2 8.0 0.00 0.00 0.00 74 1014.1
20260901162504 30 336 3.2 9.7 0.00 0.00 0.00 74 1014.2
20260901162402 30 336 4.8 11.3 0.00 0.00 0.00 74 1014.2
20260901162306 30 336 3.2 11.3 0.00 0.00 0.00 74 1014.2
20260901162203 30 338 3.2 11.3 0.00 0.00 0.00 74 1014.1
20260901162103 30 338 4.8 11.3 0.00 0.00 0.00 73 1014.1
20260901162003 30 340 4.8 11.3 0.00 0.00 0.00 73 1014.1
20260901161903 30 340 4.8 11.3 0.00 0.00 0.00 73 1014.1
20260901161803 30 340 4.8 11.3 0.00 0.00 0.00 73 1014.1
20260901161702 30 340 6.4 11.3 0.00 0.00 0.00 73 1014.0
20260901161602 30 340 8.0 11.3 0.00 0.00 0.00 73 1014.0
20260901161502 30 7 8.0 11.3 0.00 0.00 0.00 73 1014.0
20260901161402 30 3 4.8 9.7 0.00 0.00 0.00 73 1014.0
20260901161303 30 0 3.2 14.5 0.00 0.00 0.00 73 1014.0
20260901161203 30 21 4.8 16.1 0.00 0.00 0.00 73 1013.9
20260901161102 30 350 6.4 16.1 0.00 0.00 0.00 73 1014.0
20260901161003 30 0 6.4 16.1 0.00 0.00 0.00 73 1013.9
20260901160904 30 0 6.4 16.1 0.00 0.00 0.00 73 1014.0
20260901160802 30 0 6.4 16.1 0.00 0.00 0.00 73 1013.9
20260901160659 30 0 4.8 16.1 0.00 0.00 0.00 73 1013.9
20260901160559 30 358 4.8 16.1 0.00 0.00 0.00 73 1013.9
20260901160457 30 0 8.0 16.1 0.00 0.00 0.00 73 1014.0
20260901160355 30 351 9.7 16.1 0.00 0.00 0.00 73 1013.9
20260901160253 30 345 9.7 16.1 0.00 0.00 0.00 73 1013.9
20260901160153 30 347 8.0 16.1 0.00 0.00 0.00 73 1013.9
20260901160051 30 0 6.4 16.1 0.00 0.00 0.00 72 1013.9
20260901155949 30 347 6.4 16.1 0.00 0.00 0.00 73 1013.9
20260901155847 30 350 6.4 16.1 0.00 0.00 0.00 73 1013.9
20260901155747 30 7 6.4 16.1 0.00 0.00 0.00 72 1013.9
20260901155644 30 0 9.7 16.1 0.00 0.00 0.00 72 1013.9
20260901155543 31 340 11.3 16.1 0.00 0.00 0.00 72 1013.9
20260901155443 31 0 8.0 16.1 0.00 0.00 0.00 72 1013.9
20260901155337 31 3 8.0 16.1 0.00 0.00 0.00 72 1013.8
20260901155237 31 8 8.0 16.1 0.00 0.00 0.00 72 1013.9
20260901155133 31 357 6.4 14.5 0.00 0.00 0.00 72 1013.8
20260901155032 31 0 6.4 14.5 0.00 0.00 0.00 72 1013.8
20260901154931 31 17 6.4 14.5 0.00 0.00 0.00 72 1013.8
20260901154832 31 314 4.8 14.5 0.00 0.00 0.00 73 1013.8
20260901154731 31 4 4.8 14.5 0.00 0.00 0.00 72 1013.8
20260901154631 31 333 6.4 14.5 0.00 0.00 0.00 72 1013.7
20260901154532 31 20 8.0 14.5 0.00 0.00 0.00 72 1013.7
20260901154431 31 17 9.7 17.7 0.00 0.00 0.00 73 1013.8
20260901154330 31 0 8.0 17.7 0.00 0.00 0.00 72 1013.6
20260901154231 31 344 8.0 17.7 0.00 0.00 0.00 72 1013.6
20260901154132 31 0 8.0 17.7 0.00 0.00 0.00 73 1013.7
20260901154031 31 3 8.0 17.7 0.00 0.00 0.00 73 1013.6
20260901153931 31 355 8.0 17.7 0.00 0.00 0.00 73 1013.7
20260901153832 31 25 8.0 17.7 0.00 0.00 0.00 73 1013.7
20260901153731 30 13 6.4 17.7 0.00 0.00 0.00 73 1013.7
20260901153630 30 343 9.7 17.7 0.00 0.00 0.00 74 1013.7
20260901153531 30 17 11.3 17.7 0.00 0.00 0.00 73 1013.8
20260901153432 30 30 9.7 17.7 0.00 0.00 0.00 73 1013.7
20260901153331 30 18 9.7 17.7 0.00 0.00 0.00 73 1013.8
20260901153231 30 25 11.3 17.7 0.00 0.00 0.00 74 1013.8
20260901153133 30 347 11.3 17.7 0.00 0.00 0.00 74 1013.8
20260901153032 30 30 9.7 17.7 0.00 0.00 0.00 74 1013.8
20260901152931 30 24 9.7 14.5 0.00 0.00 0.00 74 1013.8
20260901152831 30 0 9.7 17.7 0.00 0.00 0.00 74 1013.7
20260901152732 30 348 8.0 17.7 0.00 0.00 0.00 74 1013.8
20260901152631 30 0 8.0 17.7 0.00 0.00 0.00 74 1013.8
20260901152531 30 333 8.0 17.7 0.00 0.00 0.00 74 1013.6
20260901152431 30 327 8.0 17.7 0.00 0.00 0.00 74 1013.7
20260901152331 30 355 8.0 17.7 0.00 0.00 0.00 74 1013.7
20260901152230 30 347 6.4 17.7 0.00 0.00 0.00 74 1013.7
20260901152132 30 323 9.7 17.7 0.00 0.00 0.00 74 1013.8
20260901152032 30 323 9.7 17.7 0.00 0.00 0.00 74 1013.8
20260901151933 30 344 9.7 17.7 0.00 0.00 0.00 74 1013.8
20260901151830 30 347 8.0 16.1 0.00 0.00 0.00 75 1013.8
20260901151731 30 321 8.0 14.5 0.00 0.00 0.00 75 1013.8
20260901151631 30 329 8.0 14.5 0.00 0.00 0.00 75 1013.8
20260901151532 30 350 6.4 14.5 0.00 0.00 0.00 75 1013.8
20260901151427 30 0 6.4 14.5 0.00 0.00 0.00 75 1013.9
20260901151325 30 0 6.4 14.5 0.00 0.00 0.00 75 1013.9
20260901151224 30 0 6.4 14.5 0.00 0.00 0.00 75 1013.9
20260901151123 30 8 8.0 14.5 0.00 0.00 0.00 75 1014.0
20260901151022 30 25 8.0 14.5 0.00 0.00 0.00 75 1014.0
20260901150920 30 24 6.4 14.5 0.00 0.00 0.00 76 1014.0
20260901150817 30 0 6.4 14.5 0.00 0.00 0.00 76 1014.0
20260901150719 30 34 6.4 14.5 0.00 0.00 0.00 76 1013.9
20260901150615 30 0 8.0 14.5 0.00 0.00 0.00 76 1014.0
20260901150515 30 41 9.7 14.5 0.00 0.00 0.00 76 1013.9
20260901150414 30 34 8.0 14.5 0.00 0.00 0.00 77 1013.9
20260901150311 30 37 4.8 14.5 0.00 0.00 0.00 78 1013.8
20260901150209 30 348 4.8 11.3 0.00 0.00 0.00 78 1013.8
20260901150108 30 345 6.4 11.3 0.00 0.00 0.00 79 1013.9
20260901150007 30 10 4.8 11.3 0.00 0.00 0.00 79 1013.8
20260901145905 30 13 4.8 11.3 0.00 0.00 0.00 79 1013.9
20260901145805 30 7 4.8 11.3 0.00 0.00 0.00 79 1013.9
20260901145705 30 10 6.4 11.3 0.00 0.00 0.00 79 1013.9
20260901145605 29 358 4.8 11.3 0.00 0.00 0.00 79 1013.9
20260901145505 29 0 4.8 11.3 0.00 0.00 0.00 79 1013.9
20260901145405 29 0 6.4 11.3 0.00 0.00 0.00 80 1013.9
20260901145306 29 32 6.4 11.3 0.00 0.00 0.00 80 1013.9
20260901145205 29 11 6.4 9.7 0.00 0.00 0.00 80 1013.9
20260901145105 29 17 4.8 9.7 0.00 0.00 0.00 81 1013.9
20260901145007 29 0 4.8 9.7 0.00 0.00 0.00 81 1013.9
20260901144905 28 0 4.8 9.7 0.00 0.00 0.00 82 1014.0
20260901144805 28 0 4.8 9.7 0.00 0.00 0.00 82 1013.9
20260901144705 28 0 4.8 9.7 0.00 0.00 0.00 82 1013.9
20260901144604 28 0 4.8 9.7 0.00 0.00 0.00 82 1013.9
20260901144505 28 0 4.8 9.7 0.00 0.00 0.00 82 1013.9
20260901144405 28 0 4.8 11.3 0.00 0.00 0.00 82 1013.9
20260901144305 28 0 4.8 11.3 0.00 0.00 0.00 83 1013.9
20260901144205 28 0 4.8 11.3 0.00 0.00 0.00 83 1014.0
20260901144106 28 0 3.2 11.3 0.00 0.00 0.00 83 1013.9
20260901144005 28 0 6.4 11.3 0.00 0.00 0.00 83 1013.9
20260901143905 28 0 6.4 11.3 0.00 0.00 0.00 83 1013.9
20260901143805 28 0 6.4 11.3 0.00 0.00 0.00 83 1013.9
20260901143705 28 358 6.4 11.3 0.00 0.00 0.00 83 1014.0
20260901143606 28 0 8.0 11.3 0.00 0.00 0.00 83 1014.0
20260901143504 28 13 6.4 11.3 0.00 0.00 0.00 83 1013.9
20260901143405 28 0 6.4 9.7 0.00 0.00 0.00 83 1013.9
20260901143305 28 354 6.4 9.7 0.00 0.00 0.00 83 1013.8
20260901143207 28 354 6.4 9.7 0.00 0.00 0.00 83 1013.9
20260901143105 28 4 4.8 9.7 0.00 0.00 0.00 83 1013.9
20260901143005 28 348 4.8 9.7 0.00 0.00 0.00 83 1013.9
20260901142905 28 348 4.8 9.7 0.00 0.00 0.00 83 1013.9
20260901142804 28 4 6.4 9.7 0.00 0.00 0.00 83 1013.9
20260901142705 28 8 6.4 9.7 0.00 0.00 0.00 82 1013.9
20260901142605 28 353 4.8 11.3 0.00 0.00 0.00 82 1013.8
20260901142505 28 354 6.4 11.3 0.00 0.00 0.00 82 1013.9
20260901142405 28 327 6.4 11.3 0.00 0.00 0.00 83 1013.8
20260901142305 28 337 4.8 11.3 0.00 0.00 0.00 83 1013.9
20260901142206 28 10 4.8 11.3 0.00 0.00 0.00 83 1013.9
20260901142104 28 353 3.2 14.5 0.00 0.00 0.00 83 1013.8
20260901142004 28 348 4.8 14.5 0.00 0.00 0.00 82 1013.8
20260901141905 28 348 6.4 14.5 0.00 0.00 0.00 82 1013.8
20260901141805 28 347 6.4 14.5 0.00 0.00 0.00 82 1013.8
20260901141704 28 6 8.0 14.5 0.00 0.00 0.00 82 1013.9
20260901141604 28 0 6.4 14.5 0.00 0.00 0.00 82 1013.8
20260901141505 28 350 4.8 14.5 0.00 0.00 0.00 83 1013.8
20260901141405 28 0 6.4 14.5 0.00 0.00 0.00 83 1013.8
20260901141304 28 20 9.7 14.5 0.00 0.00 0.00 83 1013.8
20260901141204 28 6 8.0 14.5 0.00 0.00 0.00 83 1013.9
20260901141107 28 23 6.4 14.5 0.00 0.00 0.00 83 1013.9
20260901141005 28 0 6.4 14.5 0.00 0.00 0.00 83 1013.8
20260901140904 28 0 6.4 14.5 0.00 0.00 0.00 83 1013.9
20260901140805 28 1 6.4 14.5 0.00 0.00 0.00 83 1014.0
20260901140704 28 1 6.4 14.5 0.00 0.00 0.00 83 1013.9
20260901140604 28 25 6.4 14.5 0.00 0.00 0.00 83 1014.0
20260901140504 28 357 8.0 14.5 0.00 0.00 0.00 83 1013.9
20260901140407 28 23 9.7 14.5 0.00 0.00 0.00 83 1014.0
20260901140304 28 351 8.0 14.5 0.00 0.00 0.00 83 1014.0
20260901140204 28 6 8.0 14.5 0.00 0.00 0.00 84 1014.0
20260901140106 28 6 6.4 14.5 0.00 0.00 0.00 84 1014.0
20260901140005 28 6 8.0 14.5 0.00 0.00 0.00 84 1014.0
20260901135904 28 3 9.7 14.5 0.00 0.00 0.00 84 1014.0
20260901135805 28 35 9.7 14.5 0.00 0.00 0.00 84 1014.0
20260901135705 28 11 11.3 14.5 0.00 0.00 0.00 84 1014.0
20260901135604 28 17 8.0 14.5 0.00 0.00 0.00 85 1014.0
20260901135505 28 0 6.4 11.3 0.00 0.00 0.00 86 1014.1
20260901135405 28 32 6.4 11.3 0.00 0.00 0.00 86 1014.0
20260901135305 27 24 8.0 11.3 0.00 0.00 0.00 86 1014.1
20260901135203 27 0 8.0 11.3 0.00 0.00 0.00 86 1014.1
20260901135105 27 345 8.0 11.3 0.00 0.00 0.00 86 1014.0
20260901135004 27 327 8.0 9.7 0.00 0.00 0.00 87 1014.1
20260901134904 27 0 6.4 9.7 0.00 0.00 0.00 87 1014.2
20260901134804 27 0 4.8 9.7 0.00 0.00 0.00 87 1014.2
20260901134704 27 0 4.8 8.0 0.00 0.00 0.00 87 1014.1
20260901134603 27 0 6.4 8.0 0.00 0.00 0.00 87 1014.2
20260901134504 27 354 6.4 8.0 0.00 0.00 0.00 87 1014.2
20260901134403 27 357 4.8 9.7 0.00 0.00 0.00 87 1014.2
20260901134303 27 357 4.8 11.3 0.00 0.00 0.00 88 1014.2
20260901134203 27 357 6.4 11.3 0.00 0.00 0.00 88 1014.2
20260901134104 27 343 4.8 11.3 0.00 0.00 0.00 88 1014.2
20260901134004 27 7 1.6 11.3 0.00 0.00 0.00 88 1014.3
20260901133903 27 7 3.2 11.3 0.00 0.00 0.00 88 1014.2
20260901133803 27 7 3.2 11.3 0.00 0.00 0.00 88 1014.3
20260901133704 27 8 4.8 11.3 0.00 0.00 0.00 88 1014.3
20260901133604 27 8 6.4 11.3 0.00 0.00 0.00 88 1014.3
20260901133504 27 1 9.7 11.3 0.00 0.00 0.00 88 1014.3
20260901133404 27 31 9.7 11.3 0.00 0.00 0.00 88 1014.2
20260901133305 27 23 6.4 11.3 0.00 0.00 0.00 89 1014.3
20260901133204 27 17 4.8 11.3 0.00 0.00 0.00 89 1014.3
20260901133103 27 21 6.4 11.3 0.00 0.00 0.00 89 1014.3
20260901133004 27 20 6.4 11.3 0.00 0.00 0.00 89 1014.2
20260901132903 27 17 8.0 11.3 0.00 0.00 0.00 89 1014.2
20260901132803 27 32 8.0 11.3 0.00 0.00 0.00 89 1014.3
20260901132703 27 42 6.4 11.3 0.00 0.00 0.00 89 1014.2
20260901132603 27 39 6.4 9.7 0.00 0.00 0.00 89 1014.2
20260901132504 27 0 6.4 9.7 0.00 0.00 0.00 89 1014.2
20260901132403 27 17 6.4 9.7 0.00 0.00 0.00 89 1014.1
20260901132307 27 20 3.2 8.0 0.00 0.00 0.00 90 1014.1
20260901132205 27 7 3.2 8.0 0.00 0.00 0.00 90 1014.1
20260901132103 26 7 3.2 8.0 0.00 0.00 0.00 90 1014.1
20260901132003 26 7 3.2 8.0 0.00 0.00 0.00 90 1014.0
20260901131904 26 7 3.2 8.0 0.00 0.00 0.00 90 1014.0
20260901131803 26 7 3.2 8.0 0.00 0.00 0.00 90 1014.0
20260901131703 26 11 3.2 8.0 0.00 0.00 0.00 90 1013.9
20260901131604 26 13 3.2 8.0 0.00 0.00 0.00 90 1013.9
20260901131504 26 13 3.2 8.0 0.00 0.00 0.00 90 1013.9
20260901131405 26 21 4.8 8.0 0.00 0.00 0.00 90 1013.8
20260901131304 26 25 4.8 8.0 0.00 0.00 0.00 90 1013.9
20260901131203 26 25 6.4 8.0 0.00 0.00 0.00 90 1013.8
20260901131103 26 13 4.8 8.0 0.00 0.00 0.00 90 1013.8
20260901131004 26 0 4.8 8.0 0.00 0.00 0.00 90 1013.8
20260901130904 26 353 4.8 8.0 0.00 0.00 0.00 90 1013.8
20260901130803 26 340 4.8 11.3 0.00 0.00 0.00 90 1013.8
20260901130703 26 0 4.8 11.3 0.00 0.00 0.00 90 1013.7
20260901130604 26 0 4.8 11.3 0.00 0.00 0.00 90 1013.7
20260901130504 26 6 4.8 11.3 0.00 0.00 0.00 90 1013.7
20260901130402 26 6 6.4 11.3 0.00 0.00 0.00 90 1013.7
20260901130304 26 3 6.4 11.3 0.00 0.00 0.00 90 1013.7
20260901130204 26 16 6.4 11.3 0.00 0.00 0.00 90 1013.7
20260901130103 26 354 4.8 11.3 0.00 0.00 0.00 91 1013.7
20260901130002 26 353 6.4 11.3 0.00 0.00 0.00 91 1013.6
20260901125903 26 11 6.4 11.3 0.00 0.00 0.00 91 1013.6
20260901125803 26 13 6.4 11.3 0.00 0.00 0.00 91 1013.6
20260901125702 26 0 6.4 11.3 0.00 0.00 0.00 91 1013.7
20260901125558 26 8 4.8 11.3 0.00 0.00 0.00 91 1013.7
20260901125459 26 10 6.4 11.3 0.00 0.00 0.00 91 1013.7
20260901125357 26 13 6.4 11.3 0.00 0.00 0.00 91 1013.6
20260901125256 26 18 6.4 11.3 0.00 0.00 0.00 91 1013.6
20260901125155 26 25 6.4 11.3 0.00 0.00 0.00 91 1013.6
20260901125049 26 17 6.4 11.3 0.00 0.00 0.00 91 1013.5
20260901124947 26 17 6.4 11.3 0.00 0.00 0.00 91 1013.5
20260901124847 26 347 4.8 8.0 0.00 0.00 0.00 91 1013.5
20260901124738 26 3 4.8 8.0 0.00 0.00 0.00 91 1013.5
20260901124636 26 10 4.8 8.0 0.00 0.00 0.00 91 1013.5
20260901124536 26 18 4.8 8.0 0.00 0.00 0.00 91 1013.4
20260901124433 26 7 4.8 8.0 0.00 0.00 0.00 91 1013.4
20260901124333 26 7 4.8 8.0 0.00 0.00 0.00 91 1013.4
20260901124231 26 8 4.8 8.0 0.00 0.00 0.00 91 1013.4
20260901124131 26 0 4.8 8.0 0.00 0.00 0.00 91 1013.4
20260901124032 26 11 6.4 8.0 0.00 0.00 0.00 91 1013.5
20260901123932 26 0 4.8 8.0 0.00 0.00 0.00 91 1013.4
20260901123831 26 0 4.8 8.0 0.00 0.00 0.00 91 1013.4
20260901123731 26 1 4.8 8.0 0.00 0.00 0.00 91 1013.4
20260901123631 26 0 3.2 6.4 0.00 0.00 0.00 91 1013.4
20260901123531 26 0 4.8 6.4 0.00 0.00 0.00 91 1013.4
20260901123430 26 0 3.2 6.4 0.00 0.00 0.00 91 1013.4
20260901123333 26 327 3.2 6.4 0.00 0.00 0.00 91 1013.3
20260901123231 26 327 3.2 6.4 0.00 0.00 0.00 91 1013.4
20260901123131 26 327 3.2 6.4 0.00 0.00 0.00 91 1013.4
20260901123033 26 327 3.2 6.4 0.00 0.00 0.00 91 1013.3
20260901122932 26 329 3.2 6.4 0.00 0.00 0.00 91 1013.3
20260901122830 26 327 3.2 6.4 0.00 0.00 0.00 91 1013.3
20260901122731 26 327 3.2 6.4 0.00 0.00 0.00 91 1013.3
20260901122631 26 329 4.8 6.4 0.00 0.00 0.00 91 1013.3
20260901122531 26 329 4.8 6.4 0.00 0.00 0.00 91 1013.2
20260901122432 26 344 3.2 4.8 0.00 0.00 0.00 91 1013.2
20260901122333 26 0 3.2 4.8 0.00 0.00 0.00 91 1013.2
20260901122232 26 0 0.0 0.0 0.00 0.00 0.00 91 1013.2
20260901122119 26 0 0.0 0.0 0.00 0.00 0.00 91 1013.1
20260901122018 26 0 0.0 3.2 0.00 0.00 0.00 91 1013.2
20260901121916 26 0 0.0 4.8 0.00 0.00 0.00 91 1013.2
20260901121816 26 0 0.0 4.8 0.00 0.00 0.00 91 1013.2
20260901121712 26 0 0.0 4.8 0.00 0.00 0.00 91 1013.3
20260901121611 26 0 0.0 4.8 0.00 0.00 0.00 91 1013.4
20260901121510 26 0 0.0 6.4 0.00 0.00 0.00 91 1013.3
20260901121409 26 0 0.0 6.4 0.00 0.00 0.00 91 1013.3
20260901121307 26 0 0.0 6.4 0.00 0.00 0.00 91 1013.3
20260901121207 26 0 1.6 6.4 0.00 0.00 0.00 92 1013.2
20260901121103 26 0 3.2 6.4 0.00 0.00 0.00 92 1013.2
20260901121006 26 0 3.2 6.4 0.00 0.00 0.00 92 1013.2
20260901120902 26 0 3.2 6.4 0.00 0.00 0.00 92 1013.2
20260901120801 26 0 4.8 6.4 0.00 0.00 0.00 92 1013.2
20260901120703 26 0 4.8 6.4 0.00 0.00 0.00 92 1013.1
20260901120602 26 0 4.8 6.4 0.00 0.00 0.00 92 1013.1
20260901120502 26 0 4.8 6.4 0.00 0.00 0.00 92 1013.1
20260901120404 26 0 3.2 6.4 0.00 0.00 0.00 92 1013.1
20260901120304 26 0 3.2 6.4 0.00 0.00 0.00 92 1013.1
20260901120202 26 0 3.2 6.4 0.00 0.00 0.00 92 1013.1
20260901120103 26 0 3.2 6.4 0.00 0.00 0.00 92 1013.0
20260901120001 26 0 1.6 6.4 0.00 0.00 0.00 92 1013.0
20260901115901 26 0 0.0 4.8 0.00 0.00 0.00 92 1013.0
20260901115800 26 0 0.0 4.8 0.00 0.00 0.00 92 1013.0
20260901115702 26 0 0.0 4.8 0.00 0.00 0.00 92 1013.0
20260901115602 26 0 0.0 4.8 0.00 0.00 0.00 92 1013.0
20260901115503 26 0 1.6 4.8 0.00 0.00 0.00 92 1013.0
20260901115403 26 0 1.6 4.8 0.00 0.00 0.00 92 1013.0
20260901115306 26 0 3.2 4.8 0.00 0.00 0.00 92 1013.0
20260901115201 26 0 3.2 4.8 0.00 0.00 0.00 92 1013.0
20260901115101 26 0 3.2 4.8 0.00 0.00 0.00 92 1013.1
20260901115000 26 0 3.2 4.8 0.00 0.00 0.00 92 1013.0
20260901114903 26 0 1.6 3.2 0.00 0.00 0.00 92 1013.1
20260901114801 26 0 3.2 3.2 0.00 0.00 0.00 92 1013.1
20260901114700 26 0 3.2 3.2 0.00 0.00 0.00 92 1013.0
20260901114557 26 0 1.6 3.2 0.00 0.00 0.00 92 1013.0
20260901114456 26 0 1.6 3.2 0.00 0.00 0.00 92 1013.0
20260901114355 26 0 1.6 3.2 0.00 0.00 0.00 92 1013.0
20260901114253 26 0 1.6 4.8 0.00 0.00 0.00 92 1013.0
20260901114152 26 0 1.6 4.8 0.00 0.00 0.00 92 1013.0
20260901114051 26 0 1.6 4.8 0.00 0.00 0.00 92 1013.0
20260901113948 26 0 1.6 4.8 0.00 0.00 0.00 92 1013.0
20260901113847 26 0 1.6 4.8 0.00 0.00 0.00 92 1013.1
20260901113745 26 0 3.2 4.8 0.00 0.00 0.00 92 1012.9
20260901113645 26 0 3.2 4.8 0.00 0.00 0.00 92 1013.0
20260901113542 26 0 3.2 4.8 0.00 0.00 0.00 92 1013.0
20260901113440 26 0 1.6 4.8 0.00 0.00 0.00 92 1013.0
20260901113339 26 0 1.6 4.8 0.00 0.00 0.00 92 1013.0
20260901113237 26 0 1.6 4.8 0.00 0.00 0.00 92 1012.9
20260901113136 26 0 1.6 4.8 0.00 0.00 0.00 92 1013.0
20260901113036 26 0 1.6 6.4 0.00 0.00 0.00 92 1012.9
20260901112932 26 0 3.2 6.4 0.00 0.00 0.00 92 1012.9
20260901112832 26 0 3.2 6.4 0.00 0.00 0.00 92 1012.9
20260901112731 26 0 3.2 6.4 0.00 0.00 0.00 92 1012.9
20260901112630 26 0 3.2 6.4 0.00 0.00 0.00 92 1012.9
20260901112532 26 0 3.2 6.4 0.00 0.00 0.00 92 1012.9
20260901112432 26 0 3.2 6.4 0.00 0.00 0.00 92 1012.9
20260901112331 26 0 3.2 6.4 0.00 0.00 0.00 92 1012.9
20260901112230 26 3 3.2 6.4 0.00 0.00 0.00 92 1012.8
20260901112131 26 0 4.8 6.4 0.00 0.00 0.00 92 1012.9
20260901112031 26 1 3.2 6.4 0.00 0.00 0.00 92 1012.9
20260901111932 26 0 4.8 6.4 0.00 0.00 0.00 92 1012.9
20260901111831 26 0 4.8 6.4 0.00 0.00 0.00 92 1012.9
20260901111730 26 0 3.2 6.4 0.00 0.00 0.00 92 1012.8
20260901111632 26 0 3.2 6.4 0.00 0.00 0.00 92 1012.9
20260901111532 26 0 4.8 6.4 0.00 0.00 0.00 92 1012.9
20260901111432 26 0 4.8 6.4 0.00 0.00 0.00 92 1012.8
20260901111330 26 8 3.2 4.8 0.00 0.00 0.00 92 1012.9
20260901111231 26 8 3.2 4.8 0.00 0.00 0.00 92 1012.9
20260901111132 26 11 3.2 4.8 0.00 0.00 0.00 92 1012.9
20260901111031 26 13 3.2 4.8 0.00 0.00 0.00 92 1012.9
20260901110931 26 16 3.2 4.8 0.00 0.00 0.00 92 1013.0
20260901110833 26 18 3.2 4.8 0.00 0.00 0.00 92 1012.9
20260901110732 26 18 3.2 4.8 0.00 0.00 0.00 92 1013.0
20260901110631 26 24 3.2 4.8 0.00 0.00 0.00 92 1012.9
20260901110531 26 24 3.2 4.8 0.00 0.00 0.00 92 1012.9
20260901110431 26 24 3.2 4.8 0.00 0.00 0.00 92 1012.9
20260901110331 26 27 3.2 4.8 0.00 0.00 0.00 92 1012.9
20260901110228 26 27 3.2 4.8 0.00 0.00 0.00 92 1012.9
20260901110127 26 28 3.2 4.8 0.00 0.00 0.00 92 1012.8
20260901110027 26 28 3.2 4.8 0.00 0.00 0.00 92 1012.8
20260901105924 26 28 3.2 4.8 0.00 0.00 0.00 91 1012.8
20260901105824 26 28 3.2 4.8 0.00 0.00 0.00 91 1012.8
20260901105717 26 28 3.2 4.8 0.00 0.00 0.00 91 1012.8
20260901105616 26 28 3.2 4.8 0.00 0.00 0.00 91 1012.8
20260901105515 26 28 3.2 4.8 0.00 0.00 0.00 91 1012.8
20260901105413 26 28 3.2 4.8 0.00 0.00 0.00 91 1012.8
20260901105312 26 28 1.6 3.2 0.00 0.00 0.00 91 1012.8
20260901105210 26 28 1.6 3.2 0.00 0.00 0.00 91 1012.8
20260901105111 26 28 1.6 3.2 0.00 0.00 0.00 91 1012.8
20260901105007 26 28 0.0 3.2 0.00 0.00 0.00 91 1012.8
20260901104907 26 28 0.0 3.2 0.00 0.00 0.00 91 1012.8
20260901104804 26 28 0.0 3.2 0.00 0.00 0.00 91 1012.8
20260901104702 26 28 0.0 3.2 0.00 0.00 0.00 91 1012.8
20260901104601 26 28 0.0 3.2 0.00 0.00 0.00 91 1012.8
20260901104504 26 28 0.0 3.2 0.00 0.00 0.00 91 1012.8
20260901104402 26 28 0.0 3.2 0.00 0.00 0.00 91 1012.8
20260901104302 26 28 1.6 3.2 0.00 0.00 0.00 91 1012.8
20260901104203 26 28 1.6 3.2 0.00 0.00 0.00 91 1012.8
20260901104102 26 28 1.6 3.2 0.00 0.00 0.00 91 1012.8
20260901104003 26 28 1.6 3.2 0.00 0.00 0.00 91 1012.8
20260901103902 26 28 1.6 3.2 0.00 0.00 0.00 91 1012.8
20260901103801 26 28 0.0 3.2 0.00 0.00 0.00 91 1012.8
20260901103702 26 28 1.6 3.2 0.00 0.00 0.00 91 1012.8
20260901103602 26 28 1.6 3.2 0.00 0.00 0.00 91 1012.8
20260901103503 26 28 1.6 3.2 0.00 0.00 0.00 91 1012.8
20260901103402 26 28 0.0 3.2 0.00 0.00 0.00 91 1012.7
20260901103302 26 28 0.0 1.6 0.00 0.00 0.00 91 1012.7
20260901103202 26 28 0.0 1.6 0.00 0.00 0.00 91 1012.7
20260901103102 26 28 0.0 1.6 0.00 0.00 0.00 91 1012.7
20260901103002 26 28 0.0 1.6 0.00 0.00 0.00 91 1012.7
20260901102902 26 28 0.0 1.6 0.00 0.00 0.00 91 1012.7
20260901102803 26 28 0.0 1.6 0.00 0.00 0.00 91 1012.7
20260901102702 26 28 0.0 1.6 0.00 0.00 0.00 91 1012.7
20260901102602 26 28 0.0 1.6 0.00 0.00 0.00 91 1012.7
20260901102503 26 28 0.0 1.6 0.00 0.00 0.00 91 1012.8
20260901102402 26 28 0.0 1.6 0.00 0.00 0.00 91 1012.7
20260901102306 26 28 0.0 3.2 0.00 0.00 0.00 91 1012.7
20260901102202 26 28 0.0 3.2 0.00 0.00 0.00 91 1012.7
20260901102103 26 28 0.0 3.2 0.00 0.00 0.00 91 1012.7
20260901102002 26 28 0.0 3.2 0.00 0.00 0.00 91 1012.7
20260901101902 26 28 0.0 3.2 0.00 0.00 0.00 91 1012.7
20260901101803 26 28 0.0 3.2 0.00 0.00 0.00 91 1012.7
20260901101703 26 28 0.0 3.2 0.00 0.00 0.00 91 1012.7
20260901101602 26 28 0.0 3.2 0.00 0.00 0.00 91 1012.7
20260901101502 26 28 1.6 3.2 0.00 0.00 0.00 91 1012.7
20260901101404 26 28 1.6 3.2 0.00 0.00 0.00 91 1012.7
20260901101303 26 28 1.6 3.2 0.00 0.00 0.00 91 1012.7
20260901101202 26 28 1.6 3.2 0.00 0.00 0.00 91 1012.8
20260901101103 26 28 1.6 3.2 0.00 0.00 0.00 91 1012.7
20260901101002 26 28 0.0 3.2 0.00 0.00 0.00 91 1012.8
20260901100902 26 28 0.0 0.0 0.00 0.00 0.00 91 1012.8
20260901100803 26 28 0.0 0.0 0.00 0.00 0.00 91 1012.8
20260901100703 26 28 0.0 0.0 0.00 0.00 0.00 91 1012.8
20260901100603 26 28 0.0 0.0 0.00 0.00 0.00 91 1012.8
20260901100502 26 28 0.0 0.0 0.00 0.00 0.00 91 1012.8
20260901100401 26 28 0.0 0.0 0.00 0.00 0.00 91 1012.8
20260901100303 26 28 0.0 0.0 0.00 0.00 0.00 91 1012.8
20260901100203 26 28 0.0 0.0 0.00 0.00 0.00 91 1012.7
20260901100004 26 28 0.0 0.0 0.00 0.00 0.00 91 1012.8
20260901095904 26 28 0.0 0.0 0.00 0.00 0.00 91 1012.7
20260901095802 26 28 0.0 0.0 0.00 0.00 0.00 91 1012.8
20260901095703 26 28 0.0 0.0 0.00 0.00 0.00 91 1012.8
20260901095603 26 28 0.0 0.0 0.00 0.00 0.00 91 1012.8
20260901095504 26 28 0.0 0.0 0.00 0.00 0.00 91 1012.7
20260901095402 26 28 0.0 0.0 0.00 0.00 0.00 91 1012.8
20260901095306 26 28 0.0 0.0 0.00 0.00 0.00 91 1012.8
20260901095203 26 28 0.0 0.0 0.00 0.00 0.00 91 1012.8
20260901095102 26 28 0.0 0.0 0.00 0.00 0.00 91 1012.8
20260901095004 26 28 0.0 0.0 0.00 0.00 0.00 91 1012.9
20260901094902 26 28 0.0 0.0 0.00 0.00 0.00 91 1012.8
20260901094802 26 28 0.0 1.6 0.00 0.00 0.00 91 1012.8
20260901094702 26 28 0.0 1.6 0.00 0.00 0.00 91 1012.8
20260901094602 26 28 0.0 1.6 0.00 0.00 0.00 91 1012.8
20260901094503 26 28 0.0 3.2 0.00 0.00 0.00 91 1012.8
20260901094402 26 28 0.0 3.2 0.00 0.00 0.00 91 1012.8
20260901094302 26 28 0.0 4.8 0.00 0.00 0.00 91 1012.8
20260901094202 26 28 0.0 4.8 0.00 0.00 0.00 91 1012.8
20260901094102 26 28 0.0 4.8 0.00 0.00 0.00 91 1012.8
20260901094002 26 28 0.0 4.8 0.00 0.00 0.00 91 1012.8
20260901093903 26 28 0.0 4.8 0.00 0.00 0.00 91 1012.8
20260901093802 26 28 0.0 4.8 0.00 0.00 0.00 91 1012.9
20260901093702 26 28 1.6 4.8 0.00 0.00 0.00 91 1012.9
20260901093602 26 28 3.2 4.8 0.00 0.00 0.00 91 1012.8
20260901093503 26 28 3.2 4.8 0.00 0.00 0.00 91 1012.9
20260901093403 26 28 3.2 4.8 0.00 0.00 0.00 91 1012.9
20260901093304 26 28 1.6 3.2 0.00 0.00 0.00 91 1012.8
20260901093201 26 28 0.0 3.2 0.00 0.00 0.00 91 1012.9
20260901093102 26 28 0.0 0.0 0.00 0.00 0.00 92 1012.9
20260901093002 26 28 0.0 0.0 0.00 0.00 0.00 92 1012.9
20260901092903 26 28 0.0 0.0 0.00 0.00 0.00 92 1012.9
20260901092803 26 28 0.0 0.0 0.00 0.00 0.00 92 1013.0
20260901092703 26 28 0.0 0.0 0.00 0.00 0.00 92 1012.9
20260901092602 26 28 0.0 0.0 0.00 0.00 0.00 92 1012.9
20260901092502 26 28 0.0 0.0 0.00 0.00 0.00 92 1012.9
20260901092402 26 28 0.0 0.0 0.00 0.00 0.00 92 1012.9
20260901092305 26 28 0.0 0.0 0.00 0.00 0.00 92 1012.9
20260901092202 26 28 0.0 0.0 0.00 0.00 0.00 92 1012.9
20260901092103 26 28 0.0 0.0 0.00 0.00 0.00 92 1012.9
20260901092003 26 28 0.0 0.0 0.00 0.00 0.00 92 1013.0
20260901091903 26 28 0.0 0.0 0.00 0.00 0.00 92 1012.9
20260901091803 26 28 0.0 0.0 0.00 0.00 0.00 92 1013.0
20260901091702 26 28 0.0 0.0 0.00 0.00 0.00 92 1013.0
20260901091603 26 28 0.0 0.0 0.00 0.00 0.00 92 1013.0
20260901091503 26 28 0.0 0.0 0.00 0.00 0.00 92 1013.0
20260901091403 26 28 0.0 0.0 0.00 0.00 0.00 92 1013.0
20260901091304 26 28 0.0 0.0 0.00 0.00 0.00 92 1013.0
20260901091202 26 28 0.0 0.0 0.00 0.00 0.00 92 1013.0
20260901091103 26 28 0.0 0.0 0.00 0.00 0.00 92 1013.0
20260901091002 26 28 0.0 0.0 0.00 0.00 0.00 92 1013.0
20260901090903 26 28 0.0 0.0 0.00 0.00 0.00 92 1013.0
20260901090802 26 28 0.0 0.0 0.00 0.00 0.00 92 1013.0
20260901090702 26 28 0.0 0.0 0.00 0.00 0.00 92 1013.1
20260901090603 26 28 0.0 0.0 0.00 0.00 0.00 92 1013.1
20260901090504 26 28 0.0 0.0 0.00 0.00 0.00 92 1013.0
20260901090402 26 28 0.0 0.0 0.00 0.00 0.00 92 1013.1
20260901090303 26 28 0.0 0.0 0.00 0.00 0.00 92 1013.1
20260901090203 26 28 0.0 0.0 0.00 0.00 0.00 92 1013.1
20260901090004 26 28 0.0 0.0 0.00 0.00 0.00 92 1013.0
20260901085904 26 28 0.0 0.0 0.00 0.00 0.00 92 1013.0
20260901085801 26 28 0.0 0.0 0.00 0.00 0.00 92 1013.0
20260901085703 26 28 0.0 0.0 0.00 0.00 0.00 92 1013.0
20260901085602 26 28 0.0 0.0 0.00 0.00 0.00 92 1013.0
20260901085502 26 28 0.0 0.0 0.00 0.00 0.00 92 1013.0
20260901085402 26 28 0.0 0.0 0.00 0.00 0.00 92 1012.9
20260901085305 26 28 0.0 0.0 0.00 0.00 0.00 92 1013.0
20260901085203 26 28 0.0 0.0 0.00 0.00 0.00 92 1013.0
20260901085103 26 28 0.0 0.0 0.00 0.00 0.00 92 1012.9
20260901085003 26 28 0.0 0.0 0.00 0.00 0.00 92 1012.9
20260901084903 26 28 0.0 0.0 0.00 0.00 0.00 92 1012.9
20260901084803 26 28 0.0 0.0 0.00 0.00 0.00 92 1012.9
20260901084702 26 28 0.0 0.0 0.00 0.00 0.00 92 1012.9
20260901084602 26 28 0.0 0.0 0.00 0.00 0.00 92 1012.9
20260901084504 26 28 0.0 0.0 0.00 0.00 0.00 92 1012.9
20260901084402 26 28 0.0 0.0 0.00 0.00 0.00 92 1013.0
20260901084302 26 28 0.0 0.0 0.00 0.00 0.00 92 1013.0
20260901084204 26 28 0.0 0.0 0.00 0.00 0.00 92 1013.0
20260901084102 26 28 0.0 0.0 0.00 0.00 0.00 92 1013.1
20260901084002 26 28 0.0 0.0 0.00 0.00 0.00 92 1013.1
20260901083903 26 28 0.0 0.0 0.00 0.00 0.00 92 1013.0
20260901083800 26 28 0.0 0.0 0.00 0.00 0.00 92 1013.0
20260901083657 26 28 0.0 0.0 0.00 0.00 0.00 92 1013.0
20260901083557 26 28 0.0 0.0 0.00 0.00 0.00 92 1013.1
20260901083458 26 28 0.0 0.0 0.00 0.00 0.00 92 1013.1
20260901083357 26 28 0.0 0.0 0.00 0.00 0.00 92 1013.1
20260901083256 26 28 0.0 0.0 0.00 0.00 0.00 92 1013.0
20260901083156 26 28 0.0 0.0 0.00 0.00 0.00 92 1013.1
20260901083057 26 28 0.0 0.0 0.00 0.00 0.00 92 1013.0
20260901082958 26 28 0.0 0.0 0.00 0.00 0.00 92 1013.0
20260901082857 26 28 0.0 0.0 0.00 0.00 0.00 92 1013.0
20260901082757 26 30 0.0 0.0 0.00 0.00 0.00 92 1012.9
20260901082658 26 28 0.0 0.0 0.00 0.00 0.00 92 1013.0
20260901082556 26 28 0.0 0.0 0.00 0.00 0.00 92 1012.9
20260901082456 26 28 0.0 0.0 0.00 0.00 0.00 92 1012.9
20260901082356 26 30 0.0 0.0 0.00 0.00 0.00 92 1013.0
20260901082258 26 28 0.0 0.0 0.00 0.00 0.00 92 1012.9
20260901082156 26 28 0.0 0.0 0.00 0.00 0.00 92 1013.0
20260901082059 26 28 0.0 0.0 0.00 0.00 0.00 92 1012.9
20260901081956 26 28 0.0 1.6 0.00 0.00 0.00 92 1012.9
20260901081856 26 28 0.0 1.6 0.00 0.00 0.00 92 1012.9
20260901081758 26 28 0.0 1.6 0.00 0.00 0.00 92 1013.0
20260901081657 26 28 0.0 1.6 0.00 0.00 0.00 92 1013.0
20260901081556 26 28 0.0 1.6 0.00 0.00 0.00 92 1012.9
20260901081456 26 28 0.0 1.6 0.00 0.00 0.00 92 1013.0
20260901081357 26 28 0.0 1.6 0.00 0.00 0.00 92 1012.9
20260901081256 26 28 0.0 1.6 0.00 0.00 0.00 92 1013.0
20260901081156 26 28 0.0 1.6 0.00 0.00 0.00 92 1012.9
20260901081058 26 28 1.6 1.6 0.00 0.00 0.00 92 1012.9
20260901080955 26 30 1.6 1.6 0.00 0.00 0.00 91 1012.9
20260901080858 26 28 0.0 1.6 0.00 0.00 0.00 91 1013.0
20260901080757 26 30 0.0 3.2 0.00 0.00 0.00 91 1013.0
20260901080657 26 30 0.0 3.2 0.00 0.00 0.00 91 1013.0
20260901080557 26 30 0.0 3.2 0.00 0.00 0.00 91 1013.0
20260901080456 26 30 0.0 3.2 0.00 0.00 0.00 91 1013.0
20260901080357 26 30 0.0 3.2 0.00 0.00 0.00 91 1012.9
20260901080255 26 30 0.0 3.2 0.00 0.00 0.00 91 1012.9
20260901080157 26 30 0.0 3.2 0.00 0.00 0.00 91 1013.0
20260901080055 26 30 0.0 3.2 0.00 0.00 0.00 91 1013.0
20260901075958 26 30 1.6 3.2 0.00 0.00 0.00 91 1013.1
20260901075854 26 30 1.6 3.2 0.00 0.00 0.00 91 1013.0
20260901075753 26 30 1.6 3.2 0.00 0.00 0.00 91 1013.0
20260901075651 26 30 0.0 1.6 0.00 0.00 0.00 91 1013.0
20260901075551 26 30 0.0 0.0 0.00 0.00 0.00 91 1013.0
20260901075449 26 30 0.0 0.0 0.00 0.00 0.00 91 1013.0
20260901075347 26 30 0.0 0.0 0.00 0.00 0.00 91 1013.1
20260901075245 26 30 0.0 0.0 0.00 0.00 0.00 91 1013.0
20260901075144 26 30 0.0 0.0 0.00 0.00 0.00 91 1013.1
20260901075042 26 30 0.0 0.0 0.00 0.00 0.00 91 1013.1
20260901074941 27 30 0.0 0.0 0.00 0.00 0.00 91 1013.1
20260901074840 27 30 0.0 0.0 0.00 0.00 0.00 91 1013.1
20260901074735 27 30 0.0 0.0 0.00 0.00 0.00 91 1013.1
20260901074633 27 30 0.0 0.0 0.00 0.00 0.00 91 1013.1
20260901074532 27 30 0.0 0.0 0.00 0.00 0.00 91 1013.1
20260901074431 27 30 0.0 0.0 0.00 0.00 0.00 91 1013.1
20260901074333 27 30 0.0 0.0 0.00 0.00 0.00 91 1013.1
20260901074232 27 30 0.0 0.0 0.00 0.00 0.00 91 1013.0
20260901074131 27 30 0.0 1.6 0.00 0.00 0.00 91 1013.0
20260901074030 27 30 0.0 1.6 0.00 0.00 0.00 91 1013.1
20260901073931 27 30 0.0 4.8 0.00 0.00 0.00 91 1013.0
20260901073830 27 30 0.0 4.8 0.00 0.00 0.00 91 1013.1
20260901073731 27 30 0.0 4.8 0.00 0.00 0.00 91 1013.1
20260901073633 27 30 0.0 4.8 0.00 0.00 0.00 90 1013.0
20260901073531 27 30 0.0 4.8 0.00 0.00 0.00 91 1013.0
20260901073431 27 30 0.0 4.8 0.00 0.00 0.00 91 1013.1
20260901073333 27 30 0.0 4.8 0.00 0.00 0.00 91 1013.0
20260901073231 27 30 0.0 4.8 0.00 0.00 0.00 91 1013.0
20260901073131 27 30 1.6 6.4 0.00 0.00 0.00 91 1013.0
20260901073031 27 30 3.2 6.4 0.00 0.00 0.00 91 1013.1
20260901072932 27 30 3.2 6.4 0.00 0.00 0.00 91 1013.0
20260901072831 27 39 3.2 6.4 0.00 0.00 0.00 91 1013.0
20260901072731 27 39 3.2 6.4 0.00 0.00 0.00 91 1013.1
20260901072633 27 41 3.2 6.4 0.00 0.00 0.00 91 1013.1
20260901072533 27 41 3.2 6.4 0.00 0.00 0.00 91 1013.0
20260901072431 27 41 3.2 6.4 0.00 0.00 0.00 91 1013.0
20260901072331 27 41 4.8 6.4 0.00 0.00 0.00 91 1013.1
20260901072232 27 41 6.4 6.4 0.00 0.00 0.00 91 1013.2
20260901072132 27 61 6.4 6.4 0.00 0.00 0.00 91 1013.1
20260901072031 27 61 4.8 6.4 0.00 0.00 0.00 91 1013.1
20260901071931 27 61 4.8 6.4 0.00 0.00 0.00 91 1013.2
20260901071832 27 62 4.8 6.4 0.00 0.00 0.00 91 1013.1
20260901071732 27 62 3.2 6.4 0.00 0.00 0.00 91 1013.2
20260901071631 26 62 3.2 4.8 0.00 0.00 0.00 91 1013.2
20260901071532 27 63 3.2 4.8 0.00 0.00 0.00 91 1013.2
20260901071431 26 63 3.2 4.8 0.00 0.00 0.00 91 1013.1
20260901071331 26 63 3.2 4.8 0.00 0.00 0.00 91 1013.1
20260901071232 26 63 1.6 3.2 0.00 0.00 0.00 91 1013.1
20260901071131 26 63 1.6 3.2 0.00 0.00 0.00 91 1013.1
20260901071032 26 63 0.0 3.2 0.00 0.00 0.00 91 1013.2
20260901070932 26 63 0.0 3.2 0.00 0.00 0.00 91 1013.2
20260901070832 26 63 0.0 3.2 0.00 0.00 0.00 91 1013.1
20260901070732 26 63 0.0 3.2 0.00 0.00 0.00 91 1013.1
20260901070610 26 63 1.6 3.2 0.00 0.00 0.00 91 1013.2
20260901070508 26 63 1.6 3.2 0.00 0.00 0.00 91 1013.2
20260901070408 26 63 1.6 3.2 0.00 0.00 0.00 91 1013.2
20260901070306 26 63 0.0 1.6 0.00 0.00 0.00 91 1013.2
20260901070204 26 63 0.0 1.6 0.00 0.00 0.00 91 1013.2
20260901070104 26 63 0.0 0.0 0.00 0.00 0.00 91 1013.3
20260901070002 26 56 0.0 0.0 0.00 0.00 0.00 91 1013.3
20260901065903 26 56 0.0 0.0 0.00 0.00 0.00 91 1013.2
20260901065803 26 56 0.0 0.0 0.00 0.00 0.00 91 1013.3
20260901065703 27 56 0.0 0.0 0.00 0.00 0.00 91 1013.3
20260901065604 26 58 0.0 0.0 0.00 0.00 0.00 91 1013.2
20260901065502 27 58 0.0 0.0 0.00 0.00 0.00 91 1013.3
20260901065402 26 58 0.0 1.6 0.00 0.00 0.00 91 1013.3
20260901065305 27 58 0.0 1.6 0.00 0.00 0.00 91 1013.3
20260901065202 27 58 0.0 3.2 0.00 0.00 0.00 91 1013.3
20260901065103 27 58 0.0 3.2 0.00 0.00 0.00 91 1013.2
20260901065002 27 58 0.0 3.2 0.00 0.00 0.00 91 1013.3
20260901064903 27 56 0.0 3.2 0.00 0.00 0.00 91 1013.2
20260901064801 27 56 0.0 3.2 0.00 0.00 0.00 91 1013.3
20260901064703 27 56 0.0 3.2 0.00 0.00 0.00 90 1013.3
20260901064603 27 56 0.0 3.2 0.00 0.00 0.00 90 1013.3
20260901064504 27 56 0.0 3.2 0.00 0.00 0.00 90 1013.3
20260901064402 27 56 1.6 3.2 0.00 0.00 0.00 90 1013.3
20260901064302 27 55 1.6 3.2 0.00 0.00 0.00 90 1013.3
20260901064203 27 55 0.0 3.2 0.00 0.00 0.00 90 1013.3
20260901064102 27 55 0.0 3.2 0.00 0.00 0.00 90 1013.3
20260901064004 27 55 1.6 3.2 0.00 0.00 0.00 90 1013.3
20260901063903 27 55 1.6 3.2 0.00 0.00 0.00 90 1013.3
20260901063802 27 59 1.6 3.2 0.00 0.00 0.00 90 1013.4
20260901063702 27 61 1.6 3.2 0.00 0.00 0.00 90 1013.3
20260901063603 27 61 1.6 3.2 0.00 0.00 0.00 90 1013.4
20260901063504 27 61 0.0 1.6 0.00 0.00 0.00 90 1013.4
20260901063403 27 62 0.0 0.0 0.00 0.00 0.00 90 1013.4
20260901063302 27 62 0.0 0.0 0.00 0.00 0.00 90 1013.4
20260901063202 27 62 0.0 0.0 0.00 0.00 0.00 90 1013.5
20260901063103 27 62 0.0 0.0 0.00 0.00 0.00 90 1013.4
20260901063002 27 62 0.0 0.0 0.00 0.00 0.00 90 1013.4
20260901062903 27 62 0.0 0.0 0.00 0.00 0.00 89 1013.5
20260901062804 27 63 0.0 0.0 0.00 0.00 0.00 89 1013.5
20260901062702 27 63 0.0 0.0 0.00 0.00 0.00 89 1013.4
20260901062602 27 63 0.0 0.0 0.00 0.00 0.00 89 1013.4
20260901062504 27 63 0.0 0.0 0.00 0.00 0.00 89 1013.4
20260901062402 27 63 0.0 0.0 0.00 0.00 0.00 89 1013.4
20260901062309 27 63 0.0 0.0 0.00 0.00 0.00 89 1013.4
20260901062202 27 63 0.0 1.6 0.00 0.00 0.00 89 1013.3
20260901062102 27 63 0.0 1.6 0.00 0.00 0.00 89 1013.4
20260901062002 27 63 0.0 3.2 0.00 0.00 0.00 89 1013.4
20260901061903 27 63 0.0 3.2 0.00 0.00 0.00 89 1013.4
20260901061802 27 63 0.0 3.2 0.00 0.00 0.00 89 1013.4
20260901061705 27 63 0.0 3.2 0.00 0.00 0.00 89 1013.4
20260901061603 27 63 0.0 4.8 0.00 0.00 0.00 88 1013.4
20260901061505 27 63 0.0 4.8 0.00 0.00 0.00 88 1013.3
20260901061402 27 63 0.0 4.8 0.00 0.00 0.00 89 1013.3
20260901061301 27 63 1.6 4.8 0.00 0.00 0.00 88 1013.4
20260901061203 27 63 1.6 4.8 0.00 0.00 0.00 88 1013.4
20260901061102 27 63 1.6 4.8 0.00 0.00 0.00 89 1013.3
20260901061002 27 63 1.6 4.8 0.00 0.00 0.00 89 1013.4
20260901060902 27 63 3.2 4.8 0.00 0.00 0.00 89 1013.4
20260901060803 27 63 3.2 4.8 0.00 0.00 0.00 89 1013.4
20260901060702 27 63 3.2 4.8 0.00 0.00 0.00 89 1013.4
20260901060604 27 63 3.2 4.8 0.00 0.00 0.00 89 1013.3
20260901060503 27 63 3.2 4.8 0.00 0.00 0.00 88 1013.4
20260901060403 27 63 3.2 4.8 0.00 0.00 0.00 88 1013.4
20260901060304 27 63 3.2 4.8 0.00 0.00 0.00 88 1013.4
20260901060203 27 63 3.2 4.8 0.00 0.00 0.00 88 1013.4
20260901060104 27 63 3.2 4.8 0.00 0.00 0.00 88 1013.4
20260901060003 27 63 3.2 4.8 0.00 0.00 0.00 88 1013.5
20260901055903 27 63 3.2 4.8 0.00 0.00 0.00 88 1013.4
20260901055803 27 63 3.2 4.8 0.00 0.00 0.00 88 1013.4
20260901055703 27 63 3.2 4.8 0.00 0.00 0.00 88 1013.4
20260901055602 27 63 3.2 4.8 0.00 0.00 0.00 88 1013.5
20260901055503 27 63 3.2 4.8 0.00 0.00 0.00 88 1013.5
20260901055403 27 63 3.2 4.8 0.00 0.00 0.00 88 1013.5
20260901055306 27 63 3.2 4.8 0.00 0.00 0.00 88 1013.5
20260901055202 27 63 3.2 4.8 0.00 0.00 0.00 88 1013.5
20260901055103 27 63 3.2 4.8 0.00 0.00 0.00 88 1013.5
20260901055003 27 63 1.6 4.8 0.00 0.00 0.00 88 1013.5
20260901054901 27 63 0.0 4.8 0.00 0.00 0.00 88 1013.5
20260901054802 27 63 1.6 4.8 0.00 0.00 0.00 88 1013.4
20260901054702 27 63 1.6 4.8 0.00 0.00 0.00 88 1013.4
20260901054602 27 63 1.6 3.2 0.00 0.00 0.00 88 1013.5
20260901054502 27 63 1.6 3.2 0.00 0.00 0.00 88 1013.4
20260901054402 27 63 1.6 3.2 0.00 0.00 0.00 87 1013.4
20260901054302 27 65 1.6 3.2 0.00 0.00 0.00 87 1013.4
20260901054202 27 65 0.0 1.6 0.00 0.00 0.00 87 1013.4
20260901054104 27 65 0.0 1.6 0.00 0.00 0.00 87 1013.4
20260901054002 27 65 0.0 3.2 0.00 0.00 0.00 87 1013.4
20260901053901 27 65 0.0 3.2 0.00 0.00 0.00 87 1013.3
20260901053802 27 65 0.0 4.8 0.00 0.00 0.00 87 1013.4
20260901053703 28 65 0.0 4.8 0.00 0.00 0.00 87 1013.4
20260901053602 28 65 0.0 4.8 0.00 0.00 0.00 87 1013.4
20260901053502 28 65 0.0 4.8 0.00 0.00 0.00 86 1013.4
20260901053403 28 65 0.0 6.4 0.00 0.00 0.00 86 1013.3
20260901053303 28 65 0.0 6.4 0.00 0.00 0.00 86 1013.4
20260901053202 28 65 1.6 6.4 0.00 0.00 0.00 86 1013.3
20260901053103 28 65 3.2 6.4 0.00 0.00 0.00 86 1013.3
20260901053003 28 65 3.2 6.4 0.00 0.00 0.00 86 1013.3
20260901052903 28 65 3.2 6.4 0.00 0.00 0.00 86 1013.3
20260901052803 28 65 3.2 6.4 0.00 0.00 0.00 86 1013.3
20260901052703 28 65 3.2 6.4 0.00 0.00 0.00 86 1013.3
20260901052601 28 65 3.2 6.4 0.00 0.00 0.00 86 1013.3
20260901052503 28 65 3.2 6.4 0.00 0.00 0.00 86 1013.3
20260901052404 28 65 3.2 6.4 0.00 0.00 0.00 86 1013.4
20260901052301 28 65 3.2 6.4 0.00 0.00 0.00 86 1013.3
20260901052202 28 65 3.2 6.4 0.00 0.00 0.00 86 1013.4
20260901052101 28 65 3.2 6.4 0.00 0.00 0.00 86 1013.3
20260901052004 28 65 4.8 6.4 0.00 0.00 0.00 86 1013.4
20260901051902 28 65 4.8 6.4 0.00 0.00 0.00 86 1013.3
20260901051803 28 65 3.2 8.0 0.00 0.00 0.00 86 1013.3
20260901051703 28 68 3.2 8.0 0.00 0.00 0.00 86 1013.3
20260901051602 28 72 4.8 8.0 0.00 0.00 0.00 86 1013.3
20260901051502 28 72 3.2 8.0 0.00 0.00 0.00 86 1013.3
20260901051404 28 79 3.2 8.0 0.00 0.00 0.00 86 1013.3
20260901051303 28 83 3.2 8.0 0.00 0.00 0.00 86 1013.2
20260901051203 28 83 3.2 8.0 0.00 0.00 0.00 86 1013.3
20260901051102 28 85 3.2 8.0 0.00 0.00 0.00 86 1013.3
20260901051001 28 86 6.4 8.0 0.00 0.00 0.00 86 1013.3
20260901050903 28 86 4.8 8.0 0.00 0.00 0.00 85 1013.3
20260901050802 28 90 3.2 6.4 0.00 0.00 0.00 85 1013.3
20260901050703 28 44 3.2 6.4 0.00 0.00 0.00 85 1013.2
20260901050602 28 42 3.2 6.4 0.00 0.00 0.00 85 1013.2
20260901050503 28 42 3.2 6.4 0.00 0.00 0.00 85 1013.2
20260901050402 28 42 3.2 6.4 0.00 0.00 0.00 85 1013.2
20260901050302 28 42 3.2 6.4 0.00 0.00 0.00 85 1013.2
20260901050203 28 42 3.2 6.4 0.00 0.00 0.00 85 1013.2
20260901050004 28 41 3.2 4.8 0.00 0.00 0.00 85 1013.2
20260901045902 28 41 3.2 4.8 0.00 0.00 0.00 85 1013.2
20260901045802 28 41 3.2 4.8 0.00 0.00 0.00 85 1013.1
20260901045702 28 41 3.2 4.8 0.00 0.00 0.00 85 1013.2
20260901045604 28 41 3.2 4.8 0.00 0.00 0.00 85 1013.2
20260901045502 28 41 3.2 4.8 0.00 0.00 0.00 84 1013.2
20260901045403 28 41 3.2 4.8 0.00 0.00 0.00 84 1013.2
20260901045306 28 41 3.2 6.4 0.00 0.00 0.00 84 1013.1
20260901045202 28 41 1.6 6.4 0.00 0.00 0.00 84 1013.2
20260901045101 28 41 1.6 6.4 0.00 0.00 0.00 84 1013.1
20260901045003 28 41 3.2 6.4 0.00 0.00 0.00 84 1013.2
20260901044902 28 41 3.2 6.4 0.00 0.00 0.00 84 1013.1
20260901044802 28 41 4.8 6.4 0.00 0.00 0.00 84 1013.1
20260901044703 28 41 4.8 6.4 0.00 0.00 0.00 84 1013.1
20260901044604 28 41 3.2 6.4 0.00 0.00 0.00 84 1013.0
20260901044505 28 41 4.8 6.4 0.00 0.00 0.00 83 1013.0
20260901044402 28 41 3.2 6.4 0.00 0.00 0.00 83 1013.0
20260901044303 28 39 3.2 6.4 0.00 0.00 0.00 83 1013.0
20260901044202 28 39 3.2 8.0 0.00 0.00 0.00 83 1013.0
20260901044102 28 39 4.8 8.0 0.00 0.00 0.00 83 1013.0
20260901044003 28 39 4.8 8.0 0.00 0.00 0.00 83 1013.0
20260901043903 28 38 4.8 8.0 0.00 0.00 0.00 83 1013.1
20260901043802 28 38 3.2 8.0 0.00 0.00 0.00 83 1013.1
20260901043702 28 38 4.8 8.0 0.00 0.00 0.00 83 1013.1
20260901043604 28 38 4.8 8.0 0.00 0.00 0.00 83 1013.0
20260901043503 28 38 4.8 8.0 0.00 0.00 0.00 83 1013.1
20260901043402 28 56 4.8 8.0 0.00 0.00 0.00 82 1013.1
20260901043303 28 56 4.8 8.0 0.00 0.00 0.00 82 1013.1
20260901043203 28 58 4.8 8.0 0.00 0.00 0.00 82 1013.1
20260901043103 28 59 4.8 8.0 0.00 0.00 0.00 82 1013.2
20260901043002 28 59 4.8 8.0 0.00 0.00 0.00 82 1013.2
20260901042903 28 59 4.8 8.0 0.00 0.00 0.00 82 1013.2
20260901042802 28 61 4.8 8.0 0.00 0.00 0.00 82 1013.3
20260901042702 28 61 4.8 8.0 0.00 0.00 0.00 82 1013.2
20260901042601 28 61 4.8 8.0 0.00 0.00 0.00 82 1013.2
20260901042503 28 80 4.8 8.0 0.00 0.00 0.00 81 1013.2
20260901042402 28 65 4.8 8.0 0.00 0.00 0.00 81 1013.2
20260901042305 28 62 4.8 8.0 0.00 0.00 0.00 81 1013.3
20260901042204 29 61 4.8 8.0 0.00 0.00 0.00 81 1013.2
20260901042102 29 61 4.8 8.0 0.00 0.00 0.00 81 1013.2
20260901042004 29 61 4.8 8.0 0.00 0.00 0.00 80 1013.1
20260901041902 29 61 4.8 8.0 0.00 0.00 0.00 80 1013.1
20260901041802 29 62 6.4 8.0 0.00 0.00 0.00 80 1013.2
20260901041703 29 62 6.4 8.0 0.00 0.00 0.00 80 1013.2
20260901041603 29 61 6.4 8.0 0.00 0.00 0.00 80 1013.3
20260901041504 29 62 4.8 8.0 0.00 0.00 0.00 80 1013.2
20260901041402 29 75 3.2 8.0 0.00 0.00 0.00 80 1013.2
20260901041303 29 73 3.2 8.0 0.00 0.00 0.00 79 1013.2
20260901041203 29 73 4.8 8.0 0.00 0.00 0.00 79 1013.3
20260901041101 29 73 4.8 8.0 0.00 0.00 0.00 79 1013.2
20260901041003 29 73 4.8 8.0 0.00 0.00 0.00 79 1013.3
20260901040903 29 75 4.8 8.0 0.00 0.00 0.00 79 1013.3
20260901040802 29 73 4.8 9.7 0.00 0.00 0.00 79 1013.3
20260901040701 29 73 4.8 11.3 0.00 0.00 0.00 79 1013.3
20260901040559 29 73 6.4 11.3 0.00 0.00 0.00 79 1013.3
20260901040459 29 89 4.8 11.3 0.00 0.00 0.00 79 1013.3
20260901040355 29 87 4.8 11.3 0.00 0.00 0.00 79 1013.3
20260901040254 29 72 4.8 11.3 0.00 0.00 0.00 79 1013.3
20260901040153 29 83 4.8 11.3 0.00 0.00 0.00 79 1013.2
20260901040053 29 83 6.4 11.3 0.00 0.00 0.00 79 1013.3
20260901035951 29 82 6.4 11.3 0.00 0.00 0.00 79 1013.2
20260901035851 29 76 8.0 11.3 0.00 0.00 0.00 79 1013.2
20260901035751 29 54 6.4 11.3 0.00 0.00 0.00 79 1013.2
20260901035652 29 82 4.8 11.3 0.00 0.00 0.00 79 1013.2
20260901035550 29 76 4.8 11.3 0.00 0.00 0.00 79 1013.2
20260901035450 29 82 6.4 11.3 0.00 0.00 0.00 79 1013.1
20260901035352 29 82 6.4 11.3 0.00 0.00 0.00 79 1013.1
20260901035251 29 102 6.4 11.3 0.00 0.00 0.00 79 1013.1
20260901035150 29 118 6.4 11.3 0.00 0.00 0.00 79 1013.1
20260901035050 29 89 6.4 11.3 0.00 0.00 0.00 79 1013.2
20260901034950 29 103 4.8 11.3 0.00 0.00 0.00 79 1013.1
20260901034852 29 72 6.4 11.3 0.00 0.00 0.00 79 1013.1
20260901034750 29 97 8.0 11.3 0.00 0.00 0.00 79 1013.1
20260901034651 29 89 8.0 11.3 0.00 0.00 0.00 79 1013.0
20260901034550 29 90 6.4 9.7 0.00 0.00 0.00 79 1013.1
20260901034451 29 82 6.4 9.7 0.00 0.00 0.00 78 1013.1
20260901034352 29 97 6.4 9.7 0.00 0.00 0.00 78 1013.0
20260901034250 29 100 6.4 9.7 0.00 0.00 0.00 78 1013.1
20260901034149 29 110 6.4 9.7 0.00 0.00 0.00 78 1013.0
20260901034050 29 113 6.4 9.7 0.00 0.00 0.00 78 1013.0
20260901033952 29 87 6.4 9.7 0.00 0.00 0.00 78 1013.0
20260901033851 29 107 6.4 8.0 0.00 0.00 0.00 78 1013.0
20260901033751 29 86 6.4 9.7 0.00 0.00 0.00 78 1013.0
20260901033650 29 104 6.4 9.7 0.00 0.00 0.00 78 1012.9
20260901033550 29 117 4.8 9.7 0.00 0.00 0.00 78 1012.9
20260901033450 29 99 6.4 9.7 0.00 0.00 0.00 78 1013.0
20260901033350 29 107 6.4 9.7 0.00 0.00 0.00 78 1012.9
20260901033251 29 103 6.4 9.7 0.00 0.00 0.00 78 1012.8
20260901033151 29 117 6.4 9.7 0.00 0.00 0.00 78 1012.9
20260901033049 29 110 6.4 9.7 0.00 0.00 0.00 78 1012.9
20260901032950 29 109 6.4 9.7 0.00 0.00 0.00 78 1012.9
20260901032849 29 114 6.4 9.7 0.00 0.00 0.00 78 1012.9
20260901032749 29 110 6.4 8.0 0.00 0.00 0.00 78 1012.9
20260901032650 29 110 4.8 8.0 0.00 0.00 0.00 78 1012.9
20260901032550 29 106 4.8 8.0 0.00 0.00 0.00 78 1012.8
20260901032449 29 113 4.8 8.0 0.00 0.00 0.00 78 1012.8
20260901032349 29 109 6.4 8.0 0.00 0.00 0.00 78 1012.8
20260901032249 29 109 6.4 8.0 0.00 0.00 0.00 78 1012.9
20260901032149 29 111 6.4 8.0 0.00 0.00 0.00 78 1012.8
20260901032050 29 120 6.4 8.0 0.00 0.00 0.00 78 1012.9
20260901031949 29 114 4.8 8.0 0.00 0.00 0.00 78 1012.8
20260901031851 29 110 4.8 8.0 0.00 0.00 0.00 79 1012.9
20260901031749 29 107 4.8 8.0 0.00 0.00 0.00 79 1012.9
20260901031649 29 109 6.4 8.0 0.00 0.00 0.00 79 1012.8
20260901031550 29 99 4.8 8.0 0.00 0.00 0.00 79 1012.8
20260901031450 29 104 4.8 8.0 0.00 0.00 0.00 79 1012.8
20260901031349 29 113 4.8 8.0 0.00 0.00 0.00 79 1012.9
20260901031249 29 111 4.8 8.0 0.00 0.00 0.00 79 1012.9
20260901031152 29 111 6.4 8.0 0.00 0.00 0.00 79 1012.9
20260901031050 29 111 4.8 6.4 0.00 0.00 0.00 79 1012.9
20260901030949 29 114 4.8 6.4 0.00 0.00 0.00 79 1012.9
20260901030850 29 113 4.8 6.4 0.00 0.00 0.00 79 1012.8
20260901030750 29 116 3.2 6.4 0.00 0.00 0.00 79 1012.8
20260901030649 29 128 1.6 3.2 0.00 0.00 0.00 79 1012.8
20260901030549 29 134 1.6 4.8 0.00 0.00 0.00 80 1012.7
20260901030450 29 134 1.6 4.8 0.00 0.00 0.00 79 1012.7
20260901030349 29 135 1.6 4.8 0.00 0.00 0.00 79 1012.7
20260901030250 29 135 3.2 4.8 0.00 0.00 0.00 79 1012.6
20260901030149 29 135 3.2 4.8 0.00 0.00 0.00 79 1012.6
20260901030049 29 135 3.2 4.8 0.00 0.00 0.00 79 1012.5
20260901025949 29 135 1.6 4.8 0.00 0.00 0.00 79 1012.6
20260901025850 29 135 1.6 4.8 0.00 0.00 0.00 79 1012.6
20260901025751 29 135 3.2 4.8 0.00 0.00 0.00 79 1012.5
20260901025649 29 135 1.6 4.8 0.00 0.00 0.00 79 1012.5
20260901025548 29 134 0.0 3.2 0.00 0.00 0.00 79 1012.5
20260901025449 29 134 0.0 3.2 0.00 0.00 0.00 79 1012.4
20260901025348 29 0 0.0 3.2 0.00 0.00 0.00 79 1012.4
20260901025250 29 58 1.6 3.2 0.00 0.00 0.00 79 1012.4
20260901025151 29 0 1.6 3.2 0.00 0.00 0.00 79 1012.3
20260901025049 29 0 1.6 3.2 0.00 0.00 0.00 79 1012.3
20260901024949 29 0 0.0 3.2 0.00 0.00 0.00 79 1012.4
20260901024849 29 0 0.0 3.2 0.00 0.00 0.00 79 1012.3
20260901024751 29 0 0.0 3.2 0.00 0.00 0.00 79 1012.2
20260901024648 29 59 0.0 3.2 0.00 0.00 0.00 79 1012.2
20260901024550 29 61 0.0 3.2 0.00 0.00 0.00 79 1012.1
20260901024449 29 61 1.6 4.8 0.00 0.00 0.00 79 1012.1
20260901024349 29 61 1.6 4.8 0.00 0.00 0.00 79 1012.1
20260901024250 29 0 1.6 4.8 0.00 0.00 0.00 79 1012.1
20260901024149 29 0 0.0 4.8 0.00 0.00 0.00 79 1012.1
20260901024050 29 62 0.0 4.8 0.00 0.00 0.00 79 1012.1
20260901023949 29 62 0.0 4.8 0.00 0.00 0.00 79 1012.1
20260901023849 29 62 0.0 4.8 0.00 0.00 0.00 79 1012.1
20260901023749 29 0 1.6 4.8 0.00 0.00 0.00 79 1012.1
20260901023648 29 0 1.6 4.8 0.00 0.00 0.00 79 1012.1
20260901023548 29 0 3.2 4.8 0.00 0.00 0.00 79 1012.1
20260901023448 29 0 1.6 4.8 0.00 0.00 0.00 79 1012.1
20260901023349 29 62 3.2 4.8 0.00 0.00 0.00 79 1012.1
20260901023248 29 62 3.2 4.8 0.00 0.00 0.00 79 1012.1
20260901023148 29 61 3.2 4.8 0.00 0.00 0.00 78 1012.2
20260901023049 29 62 3.2 4.8 0.00 0.00 0.00 78 1012.1
20260901022948 29 59 3.2 4.8 0.00 0.00 0.00 78 1012.1
20260901022849 29 59 3.2 4.8 0.00 0.00 0.00 78 1012.1
20260901022748 29 59 3.2 4.8 0.00 0.00 0.00 78 1012.1
20260901022650 29 59 1.6 4.8 0.00 0.00 0.00 78 1012.0
20260901022549 29 0 3.2 4.8 0.00 0.00 0.00 78 1012.0
20260901022449 29 59 3.2 4.8 0.00 0.00 0.00 78 1012.0
20260901022349 29 59 1.6 4.8 0.00 0.00 0.00 78 1012.1
20260901022248 29 59 3.2 4.8 0.00 0.00 0.00 78 1012.0
20260901022148 29 59 3.2 4.8 0.00 0.00 0.00 78 1012.0
20260901022047 29 0 1.6 4.8 0.00 0.00 0.00 78 1012.1
20260901021949 29 59 1.6 4.8 0.00 0.00 0.00 78 1012.0
20260901021849 29 59 3.2 4.8 0.00 0.00 0.00 78 1012.1
20260901021749 29 59 3.2 4.8 0.00 0.00 0.00 78 1012.0
20260901021648 29 59 1.6 4.8 0.00 0.00 0.00 78 1012.0
20260901021548 29 59 1.6 4.8 0.00 0.00 0.00 78 1011.9
20260901021448 29 61 0.0 4.8 0.00 0.00 0.00 78 1012.0
20260901021348 29 59 1.6 4.8 0.00 0.00 0.00 78 1012.0
20260901021249 29 59 3.2 4.8 0.00 0.00 0.00 78 1011.9
20260901021148 29 61 3.2 4.8 0.00 0.00 0.00 78 1011.9
20260901021048 29 0 3.2 4.8 0.00 0.00 0.00 78 1011.9
20260901020949 29 59 1.6 4.8 0.00 0.00 0.00 78 1011.8
20260901020848 29 59 1.6 4.8 0.00 0.00 0.00 78 1011.8
20260901020748 29 59 1.6 4.8 0.00 0.00 0.00 78 1011.9
20260901020648 29 61 3.2 4.8 0.00 0.00 0.00 78 1011.8
20260901020549 29 58 3.2 4.8 0.00 0.00 0.00 78 1011.8
20260901020447 30 59 3.2 4.8 0.00 0.00 0.00 78 1011.9
20260901020345 29 58 3.2 4.8 0.00 0.00 0.00 78 1011.8
20260901020243 29 59 3.2 4.8 0.00 0.00 0.00 78 1011.8
20260901020141 29 58 1.6 4.8 0.00 0.00 0.00 78 1011.8
20260901020040 29 58 1.6 4.8 0.00 0.00 0.00 78 1011.8
20260901015939 29 59 1.6 4.8 0.00 0.00 0.00 78 1011.8
20260901015838 30 59 3.2 4.8 0.00 0.00 0.00 78 1011.7
20260901015736 30 69 3.2 4.8 0.00 0.00 0.00 78 1011.8
20260901015632 30 69 1.6 4.8 0.00 0.00 0.00 78 1011.7
20260901015531 30 63 1.6 4.8 0.00 0.00 0.00 78 1011.7
20260901015431 30 65 1.6 4.8 0.00 0.00 0.00 78 1011.7
20260901015332 30 63 1.6 4.8 0.00 0.00 0.00 78 1011.7
20260901015231 30 63 3.2 4.8 0.00 0.00 0.00 77 1011.7
20260901015132 30 63 3.2 4.8 0.00 0.00 0.00 77 1011.7
20260901015032 30 61 3.2 4.8 0.00 0.00 0.00 77 1011.7
20260901014931 30 62 3.2 4.8 0.00 0.00 0.00 77 1011.6
20260901014831 30 63 1.6 4.8 0.00 0.00 0.00 77 1011.7
20260901014731 30 69 1.6 4.8 0.00 0.00 0.00 77 1011.6
20260901014631 30 71 1.6 4.8 0.00 0.00 0.00 76 1011.6
20260901014531 30 71 0.0 6.4 0.00 0.00 0.00 76 1011.6
20260901014431 30 71 0.0 6.4 0.00 0.00 0.00 76 1011.6
20260901014331 30 73 0.0 6.4 0.00 0.00 0.00 76 1011.6
20260901014232 30 73 0.0 6.4 0.00 0.00 0.00 76 1011.5
20260901014133 30 73 0.0 6.4 0.00 0.00 0.00 75 1011.5
20260901014031 30 73 1.6 6.4 0.00 0.00 0.00 75 1011.5
20260901013931 30 72 3.2 6.4 0.00 0.00 0.00 75 1011.4
20260901013831 30 73 3.2 6.4 0.00 0.00 0.00 75 1011.5
20260901013733 30 87 3.2 6.4 0.00 0.00 0.00 75 1011.5
20260901013631 30 0 3.2 6.4 0.00 0.00 0.00 75 1011.6
20260901013532 30 89 1.6 6.4 0.00 0.00 0.00 75 1011.5
20260901013432 30 90 1.6 6.4 0.00 0.00 0.00 75 1011.6
20260901013332 30 92 3.2 6.4 0.00 0.00 0.00 75 1011.6
20260901013231 30 93 3.2 6.4 0.00 0.00 0.00 75 1011.6
20260901013130 30 0 3.2 4.8 0.00 0.00 0.00 75 1011.6
20260901013031 30 93 3.2 4.8 0.00 0.00 0.00 75 1011.5
20260901012931 30 94 1.6 4.8 0.00 0.00 0.00 75 1011.5
20260901012832 30 94 1.6 4.8 0.00 0.00 0.00 75 1011.5
20260901012730 30 97 1.6 4.8 0.00 0.00 0.00 75 1011.6
20260901012631 30 69 0.0 4.8 0.00 0.00 0.00 75 1011.5
20260901012531 30 69 0.0 4.8 0.00 0.00 0.00 75 1011.5
20260901012433 30 69 0.0 4.8 0.00 0.00 0.00 75 1011.4
20260901012331 30 71 0.0 4.8 0.00 0.00 0.00 75 1011.6
20260901012231 30 71 1.6 6.4 0.00 0.00 0.00 75 1011.5
20260901012132 30 71 1.6 6.4 0.00 0.00 0.00 75 1011.5
20260901012032 30 85 1.6 6.4 0.00 0.00 0.00 75 1011.5
20260901011931 30 86 1.6 6.4 0.00 0.00 0.00 75 1011.5
20260901011831 30 75 1.6 6.4 0.00 0.00 0.00 75 1011.5
20260901011732 30 72 3.2 6.4 0.00 0.00 0.00 75 1011.5
20260901011631 30 68 3.2 6.4 0.00 0.00 0.00 74 1011.6
20260901011531 30 68 3.2 6.4 0.00 0.00 0.00 75 1011.6
20260901011429 30 66 3.2 6.4 0.00 0.00 0.00 74 1011.6
20260901011326 30 71 4.8 6.4 0.00 0.00 0.00 74 1011.6
20260901011225 30 68 3.2 6.4 0.00 0.00 0.00 74 1011.6
20260901011123 30 80 1.6 6.4 0.00 0.00 0.00 74 1011.5
20260901011022 30 80 3.2 6.4 0.00 0.00 0.00 74 1011.5
20260901010922 30 66 3.2 6.4 0.00 0.00 0.00 74 1011.5
20260901010819 30 69 3.2 6.4 0.00 0.00 0.00 74 1011.5
20260901010718 30 128 4.8 8.0 0.00 0.00 0.00 74 1011.6
20260901010616 30 102 4.8 8.0 0.00 0.00 0.00 74 1011.7
20260901010514 30 142 3.2 8.0 0.00 0.00 0.00 74 1011.5
20260901010412 30 131 1.6 8.0 0.00 0.00 0.00 74 1011.5
20260901010311 30 135 3.2 8.0 0.00 0.00 0.00 74 1011.6
20260901010210 30 133 3.2 8.0 0.00 0.00 0.00 73 1011.6
20260901010108 30 161 1.6 8.0 0.00 0.00 0.00 73 1011.6
20260901010007 30 166 1.6 8.0 0.00 0.00 0.00 73 1011.6
20260901005906 30 179 3.2 8.0 0.00 0.00 0.00 73 1011.6
20260901005804 31 180 4.8 8.0 0.00 0.00 0.00 73 1011.7
20260901005704 31 161 4.8 9.7 0.00 0.00 0.00 73 1011.6
20260901005602 31 162 4.8 9.7 0.00 0.00 0.00 73 1011.6
20260901005502 31 144 4.8 9.7 0.00 0.00 0.00 73 1011.6
20260901005402 31 128 4.8 9.7 0.00 0.00 0.00 73 1011.6
20260901005306 31 138 4.8 9.7 0.00 0.00 0.00 73 1011.6
20260901005202 31 140 4.8 9.7 0.00 0.00 0.00 73 1011.6
20260901005103 31 148 4.8 11.3 0.00 0.00 0.00 73 1011.6
20260901005004 31 138 4.8 11.3 0.00 0.00 0.00 73 1011.6
20260901004901 31 166 4.8 11.3 0.00 0.00 0.00 73 1011.7
20260901004802 31 159 4.8 11.3 0.00 0.00 0.00 73 1011.7
20260901004703 31 87 3.2 11.3 0.00 0.00 0.00 73 1011.6
20260901004602 31 145 4.8 11.3 0.00 0.00 0.00 73 1011.7
20260901004502 31 144 3.2 11.3 0.00 0.00 0.00 72 1011.7
20260901004403 31 165 3.2 11.3 0.00 0.00 0.00 72 1011.6
20260901004302 31 176 6.4 11.3 0.00 0.00 0.00 72 1011.7
20260901004203 31 173 6.4 11.3 0.00 0.00 0.00 72 1011.6
20260901004102 31 172 3.2 9.7 0.00 0.00 0.00 72 1011.7
20260901004003 31 161 3.2 9.7 0.00 0.00 0.00 72 1011.7
20260901003902 31 140 4.8 9.7 0.00 0.00 0.00 72 1011.7
20260901003803 31 154 3.2 9.7 0.00 0.00 0.00 72 1011.6
20260901003703 31 168 3.2 9.7 0.00 0.00 0.00 72 1011.7
20260901003602 31 148 4.8 9.7 0.00 0.00 0.00 72 1011.6
20260901003502 31 134 4.8 9.7 0.00 0.00 0.00 71 1011.6
20260901003404 31 220 4.8 9.7 0.00 0.00 0.00 71 1011.6
20260901003302 31 148 6.4 9.7 0.00 0.00 0.00 71 1011.6
20260901003204 31 128 4.8 8.0 0.00 0.00 0.00 71 1011.7
20260901003103 31 147 3.2 8.0 0.00 0.00 0.00 71 1011.6
20260901003004 31 169 3.2 8.0 0.00 0.00 0.00 71 1011.7
20260901002902 31 118 3.2 8.0 0.00 0.00 0.00 71 1011.6
20260901002802 31 120 3.2 8.0 0.00 0.00 0.00 71 1011.7
20260901002704 31 161 3.2 8.0 0.00 0.00 0.00 70 1011.7
20260901002603 31 130 3.2 8.0 0.00 0.00 0.00 70 1011.7
20260901002503 31 110 3.2 8.0 0.00 0.00 0.00 70 1011.7
20260901002402 31 131 3.2 8.0 0.00 0.00 0.00 70 1011.7
20260901002305 31 127 3.2 8.0 0.00 0.00 0.00 70 1011.6
20260901002202 31 145 1.6 8.0 0.00 0.00 0.00 70 1011.6
20260901002102 32 144 3.2 8.0 0.00 0.00 0.00 70 1011.6
20260901002003 32 125 4.8 8.0 0.00 0.00 0.00 70 1011.6
20260901001903 32 162 3.2 8.0 0.00 0.00 0.00 70 1011.5
20260901001802 32 233 3.2 8.0 0.00 0.00 0.00 70 1011.6
20260901001702 32 257 4.8 8.0 0.00 0.00 0.00 69 1011.5
20260901001602 32 158 3.2 8.0 0.00 0.00 0.00 69 1011.6
20260901001503 32 183 1.6 9.7 0.00 0.00 0.00 70 1011.6
20260901001402 32 114 3.2 9.7 0.00 0.00 0.00 70 1011.6
20260901001303 32 117 3.2 9.7 0.00 0.00 0.00 70 1011.6
20260901001202 32 107 3.2 9.7 0.00 0.00 0.00 70 1011.6
20260901001102 32 135 3.2 9.7 0.00 0.00 0.00 69 1011.6
20260901001004 32 118 3.2 9.7 0.00 0.00 0.00 69 1011.6
20260901000903 32 147 3.2 9.7 0.00 0.00 0.00 69 1011.6
20260901000801 32 193 3.2 9.7 0.00 0.00 0.00 69 1011.6
20260901000703 32 196 6.4 9.7 0.00 0.00 0.00 69 1011.6
20260901000603 32 124 6.4 9.7 0.00 0.00 0.00 68 1011.6
20260901000503 32 168 4.8 9.7 0.00 0.00 0.00 69 1011.7
20260901000402 32 173 4.8 9.7 0.00 0.00 0.00 69 1011.6